Time,TemperatureF,DewpointF,PressureIn,WindDirection,WindDirectionDegrees,WindSpeedMPH,WindSpeedGustMPH,Humidity,HourlyPrecipIn,Conditions,Clouds,dailyrainin,SolarRadiationWatts/m^2,SoftwareType,DateUTC
2013-05-17 00:00:00,76.3,38.9,29.76,ESE,118,8.0,8.0,26,0.00,,,0.00,0,WeatherHawk,2013-05-17 07:00:00,
2013-05-17 00:05:00,76.5,38.0,29.76,SE,124,7.0,8.0,25,0.00,,,0.00,0,WeatherHawk,2013-05-17 07:05:00,
2013-05-17 00:10:00,76.5,38.0,29.76,ESE,117,4.0,8.0,25,0.00,,,0.00,0,WeatherHawk,2013-05-17 07:10:00,
2013-05-17 00:11:00,76.3,36.8,29.76,SE,125,8.0,9.0,24,0.00,,,0.00,0,WeatherHawk,2013-05-17 07:11:00,
2013-05-17 00:12:00,76.3,37.9,29.76,ESE,121,6.0,9.0,25,0.00,,,0.00,1,WeatherHawk,2013-05-17 07:12:00,
2013-05-17 00:15:00,76.3,37.9,29.76,ESE,121,7.0,9.0,25,0.00,,,0.00,0,WeatherHawk,2013-05-17 07:15:00,
2013-05-17 00:17:00,76.3,37.9,29.76,ESE,121,7.0,9.0,25,0.00,,,0.00,0,WeatherHawk,2013-05-17 07:17:00,
2013-05-17 00:19:00,76.1,37.7,29.76,ESE,117,6.0,9.0,25,0.00,,,0.00,0,WeatherHawk,2013-05-17 07:19:00,
2013-05-17 00:20:00,76.1,37.7,29.76,ESE,117,6.0,9.0,25,0.00,,,0.00,0,WeatherHawk,2013-05-17 07:20:00,
2013-05-17 00:21:00,76.1,37.7,29.76,ESE,119,6.0,8.0,25,0.00,,,0.00,0,WeatherHawk,2013-05-17 07:21:00,
2013-05-17 00:23:00,76.1,36.7,29.76,ESE,122,7.0,8.0,24,0.00,,,0.00,0,WeatherHawk,2013-05-17 07:23:00,
2013-05-17 00:25:00,76.1,36.7,29.76,ESE,122,6.0,-999.0,24,0.00,,,0.00,0,WeatherHawk,2013-05-17 07:25:00,
2013-05-17 00:28:00,76.5,35.9,29.76,ESE,115,5.0,8.0,23,0.00,,,0.00,0,WeatherHawk,2013-05-17 07:28:00,
2013-05-17 00:29:00,76.5,35.9,29.76,ESE,112,5.0,8.0,23,0.00,,,0.00,1,WeatherHawk,2013-05-17 07:29:00,
2013-05-17 00:30:00,76.5,35.9,29.76,ESE,112,5.0,8.0,23,0.00,,,0.00,1,WeatherHawk,2013-05-17 07:30:00,
2013-05-17 00:32:00,76.5,35.9,29.76,ESE,114,6.0,9.0,23,0.00,,,0.00,0,WeatherHawk,2013-05-17 07:32:00,
2013-05-17 00:35:00,76.6,36.0,29.76,ESE,108,7.0,9.0,23,0.00,,,0.00,0,WeatherHawk,2013-05-17 07:35:00,
2013-05-17 00:36:00,76.6,36.0,29.76,ESE,120,6.0,9.0,23,0.00,,,0.00,0,WeatherHawk,2013-05-17 07:36:00,
2013-05-17 00:40:00,76.8,35.1,29.76,ESE,113,5.0,9.0,22,0.00,,,0.00,0,WeatherHawk,2013-05-17 07:40:00,
2013-05-17 00:41:00,76.8,35.1,29.76,ESE,109,5.0,7.0,22,0.00,,,0.00,0,WeatherHawk,2013-05-17 07:41:00,
2013-05-17 00:44:00,76.6,36.0,29.76,ESE,116,6.0,7.0,23,0.00,,,0.00,0,WeatherHawk,2013-05-17 07:44:00,
2013-05-17 00:45:00,76.6,36.0,29.76,ESE,104,4.0,7.0,23,0.00,,,0.00,0,WeatherHawk,2013-05-17 07:45:00,
2013-05-17 00:46:00,76.6,36.0,29.76,ESE,109,6.0,7.0,23,0.00,,,0.00,0,WeatherHawk,2013-05-17 07:46:00,
2013-05-17 00:49:00,76.5,35.9,29.76,ESE,114,6.0,7.0,23,0.00,,,0.00,1,WeatherHawk,2013-05-17 07:49:00,
2013-05-17 00:51:00,76.8,35.1,29.75,ESE,120,8.0,8.0,22,0.00,,,0.00,0,WeatherHawk,2013-05-17 07:51:00,
2013-05-17 00:54:00,77.5,34.5,29.75,ESE,119,7.0,7.0,21,0.00,,,0.00,0,WeatherHawk,2013-05-17 07:54:00,
2013-05-17 00:57:00,77.5,34.5,29.75,ESE,115,7.0,7.0,21,0.00,,,0.00,0,WeatherHawk,2013-05-17 07:57:00,
2013-05-17 00:59:00,77.4,34.4,29.75,ESE,114,6.0,7.0,21,0.00,,,0.00,0,WeatherHawk,2013-05-17 07:59:00,
2013-05-17 01:00:00,77.4,34.4,29.75,ESE,115,7.0,0.0,21,0.00,,,0.00,0,WeatherHawk,2013-05-17 08:00:00,
2013-05-17 01:04:00,77.5,34.5,29.75,ESE,123,7.0,9.0,21,0.00,,,0.00,0,WeatherHawk,2013-05-17 08:04:00,
2013-05-17 01:08:00,77.4,34.4,29.75,SE,126,7.0,9.0,21,0.00,,,0.00,0,WeatherHawk,2013-05-17 08:08:00,
2013-05-17 01:09:00,77.4,34.4,29.75,ESE,120,7.0,-999.0,21,0.00,,,0.00,0,WeatherHawk,2013-05-17 08:09:00,
2013-05-17 01:10:00,77.5,34.5,29.75,ESE,119,8.0,0.0,21,0.00,,,0.00,0,WeatherHawk,2013-05-17 08:10:00,
2013-05-17 01:14:00,77.9,33.6,29.75,SE,126,6.0,8.0,20,0.00,,,0.00,0,WeatherHawk,2013-05-17 08:14:00,
2013-05-17 01:16:00,77.7,34.7,29.75,SE,128,6.0,8.0,21,0.00,,,0.00,0,WeatherHawk,2013-05-17 08:16:00,
2013-05-17 01:18:00,77.4,34.4,29.75,ESE,119,8.0,8.0,21,0.00,,,0.00,0,WeatherHawk,2013-05-17 08:18:00,
2013-05-17 01:19:00,77.4,34.4,29.75,ESE,119,8.0,8.0,21,0.00,,,0.00,0,WeatherHawk,2013-05-17 08:19:00,
2013-05-17 01:20:00,77.4,34.4,29.75,ESE,118,5.0,0.0,21,0.00,,,0.00,1,WeatherHawk,2013-05-17 08:20:00,
2013-05-17 01:24:00,77.4,34.4,29.75,ESE,117,6.0,9.0,21,0.00,,,0.00,0,WeatherHawk,2013-05-17 08:24:00,
2013-05-17 01:25:00,77.2,34.2,29.75,ESE,108,5.0,9.0,21,0.00,,,0.00,0,WeatherHawk,2013-05-17 08:25:00,
2013-05-17 01:26:00,77.0,34.1,29.75,SE,128,4.0,9.0,21,0.00,,,0.00,0,WeatherHawk,2013-05-17 08:26:00,
2013-05-17 01:29:00,76.6,33.8,29.75,ESE,103,5.0,9.0,21,0.00,,,0.00,0,WeatherHawk,2013-05-17 08:29:00,
2013-05-17 01:31:00,77.0,34.1,29.75,ESE,119,5.0,0.0,21,0.00,,,0.00,0,WeatherHawk,2013-05-17 08:31:00,
2013-05-17 01:34:00,76.8,33.9,29.75,ESE,113,5.0,0.0,21,0.00,,,0.00,0,WeatherHawk,2013-05-17 08:34:00,
2013-05-17 01:36:00,77.0,34.1,29.75,ESE,109,4.0,0.0,21,0.00,,,0.00,0,WeatherHawk,2013-05-17 08:36:00,
2013-05-17 01:37:00,77.0,34.1,29.75,ESE,115,5.0,0.0,21,0.00,,,0.00,0,WeatherHawk,2013-05-17 08:37:00,
2013-05-17 01:38:00,77.0,34.1,29.75,ESE,114,6.0,0.0,21,0.00,,,0.00,0,WeatherHawk,2013-05-17 08:38:00,
2013-05-17 01:39:00,77.0,34.1,29.75,SE,127,6.0,0.0,21,0.00,,,0.00,0,WeatherHawk,2013-05-17 08:39:00,
2013-05-17 01:43:00,76.8,33.9,29.75,SE,139,8.0,8.0,21,0.00,,,0.00,0,WeatherHawk,2013-05-17 08:43:00,
2013-05-17 01:44:00,76.8,33.9,29.75,SE,139,8.0,8.0,21,0.00,,,0.00,0,WeatherHawk,2013-05-17 08:44:00,
2013-05-17 01:45:00,76.8,33.9,29.75,SE,138,10.0,10.0,21,0.00,,,0.00,0,WeatherHawk,2013-05-17 08:45:00,
2013-05-17 01:49:00,76.6,33.8,29.75,SE,131,11.0,11.0,21,0.00,,,0.00,1,WeatherHawk,2013-05-17 08:49:00,
2013-05-17 01:50:00,76.6,33.8,29.75,SE,128,9.0,0.0,21,0.00,,,0.00,0,WeatherHawk,2013-05-17 08:50:00,
2013-05-17 01:54:00,76.3,33.5,29.75,SE,127,9.0,11.0,21,0.00,,,0.00,0,WeatherHawk,2013-05-17 08:54:00,
2013-05-17 01:56:00,76.3,34.6,29.75,ESE,120,6.0,11.0,22,0.00,,,0.00,0,WeatherHawk,2013-05-17 08:56:00,
2013-05-17 01:58:00,76.1,34.5,29.75,ESE,116,6.0,11.0,22,0.00,,,0.00,0,WeatherHawk,2013-05-17 08:58:00,
2013-05-17 01:59:00,76.1,34.5,29.75,ESE,116,6.0,11.0,22,0.00,,,0.00,0,WeatherHawk,2013-05-17 08:59:00,
2013-05-17 02:04:00,75.7,34.2,29.75,SE,126,7.0,11.0,22,0.00,,,0.00,0,WeatherHawk,2013-05-17 09:04:00,
2013-05-17 02:06:00,75.6,34.0,29.75,ESE,120,6.0,11.0,22,0.00,,,0.00,0,WeatherHawk,2013-05-17 09:06:00,
2013-05-17 02:09:00,75.4,33.9,29.75,SE,125,5.0,11.0,22,0.00,,,0.00,1,WeatherHawk,2013-05-17 09:09:00,
2013-05-17 02:14:00,75.2,34.8,29.75,SE,142,5.0,8.0,23,0.00,,,0.00,0,WeatherHawk,2013-05-17 09:14:00,
2013-05-17 02:16:00,74.8,34.5,29.75,SE,125,6.0,8.0,23,0.00,,,0.00,0,WeatherHawk,2013-05-17 09:16:00,
2013-05-17 02:17:00,74.8,34.5,29.75,ESE,123,6.0,8.0,23,0.00,,,0.00,0,WeatherHawk,2013-05-17 09:17:00,
2013-05-17 02:19:00,74.8,34.5,29.75,SE,145,5.0,8.0,23,0.00,,,0.00,0,WeatherHawk,2013-05-17 09:19:00,
2013-05-17 02:24:00,74.8,34.5,29.75,SE,138,6.0,0.0,23,0.00,,,0.00,0,WeatherHawk,2013-05-17 09:24:00,
2013-05-17 02:25:00,74.8,34.5,29.75,SE,139,6.0,0.0,23,0.00,,,0.00,0,WeatherHawk,2013-05-17 09:25:00,
2013-05-17 02:29:00,74.7,35.5,29.75,SE,128,9.0,9.0,24,0.00,,,0.00,0,WeatherHawk,2013-05-17 09:29:00,
2013-05-17 02:32:00,74.3,35.2,29.75,SE,131,5.0,9.0,24,0.00,,,0.00,0,WeatherHawk,2013-05-17 09:32:00,
2013-05-17 02:34:00,73.9,35.9,29.75,SW,232,1.0,-999.0,25,0.00,,,0.00,0,WeatherHawk,2013-05-17 09:34:00,
2013-05-17 02:35:00,73.9,36.9,29.75,NW,307,5.0,9.0,26,0.00,,,0.00,0,WeatherHawk,2013-05-17 09:35:00,
2013-05-17 02:39:00,73.2,36.3,29.75,NNW,336,5.0,9.0,26,0.00,,,0.00,0,WeatherHawk,2013-05-17 09:39:00,
2013-05-17 02:40:00,73.0,36.1,29.75,NNW,332,2.0,0.0,26,0.00,,,0.00,0,WeatherHawk,2013-05-17 09:40:00,
2013-05-17 02:41:00,73.0,36.1,29.75,WNW,293,2.0,0.0,26,0.00,,,0.00,0,WeatherHawk,2013-05-17 09:41:00,
2013-05-17 02:44:00,72.9,37.8,29.76,NW,325,3.0,6.0,28,0.00,,,0.00,0,WeatherHawk,2013-05-17 09:44:00,
2013-05-17 02:45:00,72.7,38.6,29.76,NW,312,3.0,6.0,29,0.00,,,0.00,1,WeatherHawk,2013-05-17 09:45:00,
2013-05-17 02:47:00,72.3,37.4,29.75,NNW,342,2.0,6.0,28,0.00,,,0.00,0,WeatherHawk,2013-05-17 09:47:00,
2013-05-17 02:49:00,72.1,38.1,29.75,East,97,1.0,-999.0,29,0.00,,,0.00,0,WeatherHawk,2013-05-17 09:49:00,
2013-05-17 02:50:00,72.0,38.0,29.76,NNE,23,2.0,5.0,29,0.00,,,0.00,0,WeatherHawk,2013-05-17 09:50:00,
2013-05-17 02:54:00,71.8,38.7,29.76,NW,316,4.0,5.0,30,0.00,,,0.00,0,WeatherHawk,2013-05-17 09:54:00,
2013-05-17 02:56:00,71.6,37.6,29.76,NW,323,4.0,5.0,29,0.00,,,0.00,0,WeatherHawk,2013-05-17 09:56:00,
2013-05-17 02:57:00,71.6,37.6,29.76,NNW,328,4.0,5.0,29,0.00,,,0.00,0,WeatherHawk,2013-05-17 09:57:00,
2013-05-17 02:59:00,71.8,37.8,29.76,NNW,332,4.0,5.0,29,0.00,,,0.00,0,WeatherHawk,2013-05-17 09:59:00,
2013-05-17 03:00:00,72.0,38.0,29.76,NNW,341,4.0,0.0,29,0.00,,,0.00,0,WeatherHawk,2013-05-17 10:00:00,
2013-05-17 03:04:00,72.1,38.1,29.76,North,2,4.0,5.0,29,0.00,,,0.00,0,WeatherHawk,2013-05-17 10:04:00,
2013-05-17 03:08:00,72.5,38.4,29.76,ENE,78,3.0,5.0,29,0.00,,,0.00,0,WeatherHawk,2013-05-17 10:08:00,
2013-05-17 03:09:00,72.5,38.4,29.76,NE,56,3.0,5.0,29,0.00,,,0.00,0,WeatherHawk,2013-05-17 10:09:00,
2013-05-17 03:10:00,72.3,38.3,29.76,NNW,327,4.0,0.0,29,0.00,,,0.00,0,WeatherHawk,2013-05-17 10:10:00,
2013-05-17 03:14:00,72.3,38.3,29.76,NNE,12,4.0,5.0,29,0.00,,,0.00,0,WeatherHawk,2013-05-17 10:14:00,
2013-05-17 03:18:00,73.6,37.5,29.76,ENE,58,3.0,5.0,27,0.00,,,0.00,0,WeatherHawk,2013-05-17 10:18:00,
2013-05-17 03:19:00,73.6,37.5,29.76,ENE,58,3.0,5.0,27,0.00,,,0.00,0,WeatherHawk,2013-05-17 10:19:00,
2013-05-17 03:24:00,71.8,37.8,29.76,NE,44,4.0,0.0,29,0.00,,,0.00,0,WeatherHawk,2013-05-17 10:24:00,
2013-05-17 03:27:00,71.2,37.3,29.76,NE,41,5.0,6.0,29,0.00,,,0.00,0,WeatherHawk,2013-05-17 10:27:00,
2013-05-17 03:28:00,71.2,37.3,29.76,NE,55,4.0,6.0,29,0.00,,,0.00,0,WeatherHawk,2013-05-17 10:28:00,
2013-05-17 03:29:00,71.2,37.3,29.76,NE,55,4.0,6.0,29,0.00,,,0.00,0,WeatherHawk,2013-05-17 10:29:00,
2013-05-17 03:32:00,70.9,37.9,29.76,ENE,76,5.0,6.0,30,0.00,,,0.00,0,WeatherHawk,2013-05-17 10:32:00,
2013-05-17 03:33:00,71.1,37.2,29.76,East,80,5.0,6.0,29,0.00,,,0.00,0,WeatherHawk,2013-05-17 10:33:00,
2013-05-17 03:34:00,71.1,37.2,29.76,East,80,5.0,-999.0,29,0.00,,,0.00,0,WeatherHawk,2013-05-17 10:34:00,
2013-05-17 03:35:00,71.2,37.3,29.76,NNE,33,2.0,6.0,29,0.00,,,0.00,0,WeatherHawk,2013-05-17 10:35:00,
2013-05-17 03:39:00,71.6,37.6,29.76,ENE,74,5.0,-999.0,29,0.00,,,0.00,0,WeatherHawk,2013-05-17 10:39:00,
2013-05-17 03:41:00,72.0,37.1,29.76,NE,51,3.0,0.0,28,0.00,,,0.00,0,WeatherHawk,2013-05-17 10:41:00,
2013-05-17 03:44:00,72.5,37.5,29.76,ENE,75,4.0,5.0,28,0.00,,,0.00,0,WeatherHawk,2013-05-17 10:44:00,
2013-05-17 03:47:00,72.5,37.5,29.76,SE,130,3.0,5.0,28,0.00,,,0.00,0,WeatherHawk,2013-05-17 10:47:00,
2013-05-17 03:49:00,72.0,37.1,29.76,ESE,114,1.0,5.0,28,0.00,,,0.00,0,WeatherHawk,2013-05-17 10:49:00,
2013-05-17 03:54:00,71.4,37.5,29.76,East,95,2.0,0.0,29,0.00,,,0.00,0,WeatherHawk,2013-05-17 10:54:00,
2013-05-17 03:55:00,71.6,37.6,29.76,East,100,4.0,0.0,29,0.00,,,0.00,0,WeatherHawk,2013-05-17 10:55:00,
2013-05-17 03:59:00,72.0,38.0,29.76,East,89,5.0,0.0,29,0.00,,,0.00,0,WeatherHawk,2013-05-17 10:59:00,
2013-05-17 04:00:00,71.8,37.8,29.76,East,91,4.0,0.0,29,0.00,,,0.00,0,WeatherHawk,2013-05-17 11:00:00,
2013-05-17 04:04:00,71.4,37.5,29.76,East,81,4.0,6.0,29,0.00,,,0.00,0,WeatherHawk,2013-05-17 11:04:00,
2013-05-17 04:06:00,70.7,37.7,29.76,ENE,75,4.0,6.0,30,0.00,,,0.00,0,WeatherHawk,2013-05-17 11:06:00,
2013-05-17 04:08:00,70.2,38.1,29.76,East,93,6.0,6.0,31,0.00,,,0.00,0,WeatherHawk,2013-05-17 11:08:00,
2013-05-17 04:09:00,70.2,38.1,29.76,East,93,6.0,-999.0,31,0.00,,,0.00,0,WeatherHawk,2013-05-17 11:09:00,
2013-05-17 04:10:00,70.2,38.1,29.76,ENE,78,5.0,0.0,31,0.00,,,0.00,0,WeatherHawk,2013-05-17 11:10:00,
2013-05-17 04:14:00,69.8,38.6,29.76,East,97,4.0,7.0,32,0.00,,,0.00,0,WeatherHawk,2013-05-17 11:14:00,
2013-05-17 04:16:00,69.8,38.6,29.76,East,86,4.0,7.0,32,0.00,,,0.00,0,WeatherHawk,2013-05-17 11:16:00,
2013-05-17 04:18:00,69.6,39.2,29.76,ESE,108,5.0,7.0,33,0.00,,,0.00,0,WeatherHawk,2013-05-17 11:18:00,
2013-05-17 04:19:00,69.6,39.2,29.76,ESE,120,4.0,0.0,33,0.00,,,0.00,1,WeatherHawk,2013-05-17 11:19:00,
2013-05-17 04:23:00,69.8,39.4,29.76,SE,125,3.0,0.0,33,0.00,,,0.00,1,WeatherHawk,2013-05-17 11:23:00,
2013-05-17 04:24:00,69.8,39.4,29.76,SE,125,3.0,0.0,33,0.00,,,0.00,1,WeatherHawk,2013-05-17 11:24:00,
2013-05-17 04:25:00,69.8,39.4,29.76,SE,130,4.0,0.0,33,0.00,,,0.00,0,WeatherHawk,2013-05-17 11:25:00,
2013-05-17 04:26:00,69.6,39.2,29.76,SSE,149,3.0,0.0,33,0.00,,,0.00,1,WeatherHawk,2013-05-17 11:26:00,
2013-05-17 04:28:00,69.6,40.0,29.76,SE,141,3.0,0.0,34,0.00,,,0.00,0,WeatherHawk,2013-05-17 11:28:00,
2013-05-17 04:31:00,69.3,38.9,29.76,SSE,164,3.0,0.0,33,0.00,,,0.00,0,WeatherHawk,2013-05-17 11:31:00,
2013-05-17 04:32:00,69.3,39.7,29.76,SSE,165,4.0,4.0,34,0.00,,,0.00,0,WeatherHawk,2013-05-17 11:32:00,
2013-05-17 04:34:00,69.1,39.5,29.76,SSE,151,4.0,-999.0,34,0.00,,,0.00,0,WeatherHawk,2013-05-17 11:34:00,
2013-05-17 04:38:00,69.1,39.5,29.76,East,92,4.0,4.0,34,0.00,,,0.00,0,WeatherHawk,2013-05-17 11:38:00,
2013-05-17 04:39:00,69.1,39.5,29.76,East,92,4.0,4.0,34,0.00,,,0.00,0,WeatherHawk,2013-05-17 11:39:00,
2013-05-17 04:41:00,69.1,39.5,29.76,NNW,328,1.0,0.0,34,0.00,,,0.00,0,WeatherHawk,2013-05-17 11:41:00,
2013-05-17 04:44:00,68.9,39.4,29.76,NNW,336,0.0,0.0,34,0.00,,,0.00,0,WeatherHawk,2013-05-17 11:44:00,
2013-05-17 04:48:00,68.9,39.4,29.76,SE,124,2.0,0.0,34,0.00,,,0.00,0,WeatherHawk,2013-05-17 11:48:00,
2013-05-17 04:49:00,68.9,39.4,29.76,SE,124,2.0,0.0,34,0.00,,,0.00,0,WeatherHawk,2013-05-17 11:49:00,
2013-05-17 04:52:00,68.9,39.4,29.77,ESE,108,1.0,4.0,34,0.00,,,0.00,0,WeatherHawk,2013-05-17 11:52:00,
2013-05-17 04:54:00,68.9,39.4,29.77,ESE,108,1.0,4.0,34,0.00,,,0.00,0,WeatherHawk,2013-05-17 11:54:00,
2013-05-17 04:58:00,68.7,40.0,29.76,ESE,119,2.0,4.0,35,0.00,,,0.00,1,WeatherHawk,2013-05-17 11:58:00,
2013-05-17 04:59:00,68.7,40.0,29.76,ESE,103,2.0,4.0,35,0.00,,,0.00,0,WeatherHawk,2013-05-17 11:59:00,
2013-05-17 05:00:00,68.7,40.0,29.76,ESE,107,2.0,0.0,35,0.00,,,0.00,0,WeatherHawk,2013-05-17 12:00:00,
2013-05-17 05:03:00,69.1,39.5,29.76,East,95,3.0,0.0,34,0.00,,,0.00,0,WeatherHawk,2013-05-17 12:03:00,
2013-05-17 05:04:00,69.1,39.5,29.76,East,95,3.0,0.0,34,0.00,,,0.00,0,WeatherHawk,2013-05-17 12:04:00,
2013-05-17 05:05:00,69.3,39.7,29.76,East,100,2.0,0.0,34,0.00,,,0.00,1,WeatherHawk,2013-05-17 12:05:00,
2013-05-17 05:09:00,69.3,40.4,29.77,ESE,110,2.0,0.0,35,0.00,,,0.00,0,WeatherHawk,2013-05-17 12:09:00,
2013-05-17 05:13:00,68.7,39.2,29.77,East,98,1.0,3.0,34,0.00,,,0.00,0,WeatherHawk,2013-05-17 12:13:00,
2013-05-17 05:14:00,68.7,39.2,29.77,East,98,1.0,3.0,34,0.00,,,0.00,0,WeatherHawk,2013-05-17 12:14:00,
2013-05-17 05:18:00,68.7,40.0,29.77,ESE,108,3.0,3.0,35,0.00,,,0.00,0,WeatherHawk,2013-05-17 12:18:00,
2013-05-17 05:19:00,68.7,40.0,29.77,ESE,108,3.0,3.0,35,0.00,,,0.00,0,WeatherHawk,2013-05-17 12:19:00,
2013-05-17 05:20:00,68.9,40.1,29.77,East,97,2.0,0.0,35,0.00,,,0.00,0,WeatherHawk,2013-05-17 12:20:00,
2013-05-17 05:24:00,68.9,40.8,29.77,East,95,2.0,0.0,36,0.00,,,0.00,0,WeatherHawk,2013-05-17 12:24:00,
2013-05-17 05:26:00,68.7,40.7,29.77,East,88,3.0,0.0,36,0.00,,,0.00,0,WeatherHawk,2013-05-17 12:26:00,
2013-05-17 05:29:00,68.5,40.5,29.77,ENE,72,4.0,0.0,36,0.00,,,0.00,2,WeatherHawk,2013-05-17 12:29:00,
2013-05-17 05:30:00,68.5,40.5,29.77,East,86,3.0,0.0,36,0.00,,,0.00,1,WeatherHawk,2013-05-17 12:30:00,
2013-05-17 05:32:00,68.5,40.5,29.77,East,82,4.0,0.0,36,0.00,,,0.00,1,WeatherHawk,2013-05-17 12:32:00,
2013-05-17 05:33:00,68.4,41.1,29.77,East,88,4.0,0.0,37,0.00,,,0.00,3,WeatherHawk,2013-05-17 12:33:00,
2013-05-17 05:34:00,68.2,40.2,29.77,East,83,4.0,0.0,36,0.00,,,0.00,3,WeatherHawk,2013-05-17 12:34:00,
2013-05-17 05:39:00,67.6,40.4,29.78,East,91,4.0,0.0,37,0.00,,,0.00,12,WeatherHawk,2013-05-17 12:39:00,
2013-05-17 05:40:00,67.6,41.1,29.78,East,82,4.0,0.0,38,0.00,,,0.00,13,WeatherHawk,2013-05-17 12:40:00,
2013-05-17 05:41:00,67.5,41.0,29.78,East,86,4.0,0.0,38,0.00,,,0.00,14,WeatherHawk,2013-05-17 12:41:00,
2013-05-17 05:44:00,67.3,41.5,29.78,East,94,4.0,0.0,39,0.00,,,0.00,16,WeatherHawk,2013-05-17 12:44:00,
2013-05-17 05:46:00,67.3,40.8,29.78,East,100,4.0,0.0,38,0.00,,,0.00,22,WeatherHawk,2013-05-17 12:46:00,
2013-05-17 05:49:00,67.8,40.6,29.78,ESE,103,4.0,0.0,37,0.00,,,0.00,30,WeatherHawk,2013-05-17 12:49:00,
2013-05-17 05:50:00,67.8,40.6,29.78,ESE,106,4.0,0.0,37,0.00,,,0.00,32,WeatherHawk,2013-05-17 12:50:00,
2013-05-17 05:51:00,68.0,40.7,29.78,ESE,110,3.0,0.0,37,0.00,,,0.00,35,WeatherHawk,2013-05-17 12:51:00,
2013-05-17 05:52:00,68.2,40.9,29.78,ESE,106,4.0,0.0,37,0.00,,,0.00,40,WeatherHawk,2013-05-17 12:52:00,
2013-05-17 05:55:00,68.2,40.9,29.78,ESE,119,4.0,0.0,37,0.00,,,0.00,52,WeatherHawk,2013-05-17 12:55:00,
2013-05-17 05:56:00,68.2,40.9,29.78,ESE,117,4.0,0.0,37,0.00,,,0.00,59,WeatherHawk,2013-05-17 12:56:00,
2013-05-17 05:59:00,68.2,40.9,29.78,ESE,117,4.0,0.0,37,0.00,,,0.00,64,WeatherHawk,2013-05-17 12:59:00,
2013-05-17 06:01:00,68.2,40.9,29.78,ESE,115,3.0,4.0,37,0.00,,,0.00,74,WeatherHawk,2013-05-17 13:01:00,
2013-05-17 06:02:00,68.4,41.1,29.78,ESE,114,3.0,4.0,37,0.00,,,0.00,81,WeatherHawk,2013-05-17 13:02:00,
2013-05-17 06:03:00,68.4,41.1,29.78,ESE,115,3.0,4.0,37,0.00,,,0.00,85,WeatherHawk,2013-05-17 13:03:00,
2013-05-17 06:04:00,68.4,41.1,29.78,ESE,119,4.0,4.0,37,0.00,,,0.00,91,WeatherHawk,2013-05-17 13:04:00,
2013-05-17 06:07:00,68.7,41.4,29.79,ESE,113,4.0,4.0,37,0.00,,,0.00,103,WeatherHawk,2013-05-17 13:07:00,
2013-05-17 06:09:00,68.9,40.8,29.79,ESE,119,4.0,4.0,36,0.00,,,0.00,112,WeatherHawk,2013-05-17 13:09:00,
2013-05-17 06:10:00,68.9,40.8,29.79,SE,126,4.0,0.0,36,0.00,,,0.00,115,WeatherHawk,2013-05-17 13:10:00,
2013-05-17 06:14:00,69.1,40.3,29.79,SE,140,5.0,-999.0,35,0.00,,,0.00,129,WeatherHawk,2013-05-17 13:14:00,
2013-05-17 06:16:00,70.9,40.3,29.79,SE,125,4.0,0.0,33,0.00,,,0.00,141,WeatherHawk,2013-05-17 13:16:00,
2013-05-17 06:18:00,70.9,40.3,29.79,SE,128,3.0,0.0,33,0.00,,,0.00,143,WeatherHawk,2013-05-17 13:18:00,
2013-05-17 06:21:00,70.9,41.1,29.79,SE,129,2.0,0.0,34,0.00,,,0.00,150,WeatherHawk,2013-05-17 13:21:00,
2013-05-17 06:22:00,70.7,40.9,29.80,SE,129,2.0,6.0,34,0.00,,,0.00,148,WeatherHawk,2013-05-17 13:22:00,
2013-05-17 06:26:00,70.9,41.1,29.80,SE,143,3.0,6.0,34,0.00,,,0.00,153,WeatherHawk,2013-05-17 13:26:00,
2013-05-17 06:27:00,70.9,41.1,29.80,SSE,161,3.0,6.0,34,0.00,,,0.00,112,WeatherHawk,2013-05-17 13:27:00,
2013-05-17 06:28:00,70.7,41.7,29.80,SSE,161,3.0,6.0,35,0.00,,,0.00,109,WeatherHawk,2013-05-17 13:28:00,
2013-05-17 06:30:00,70.5,42.3,29.80,SSE,157,4.0,0.0,36,0.00,,,0.00,135,WeatherHawk,2013-05-17 13:30:00,
2013-05-17 06:32:00,70.3,42.1,29.80,SSE,148,3.0,4.0,36,0.00,,,0.00,163,WeatherHawk,2013-05-17 13:32:00,
2013-05-17 06:33:00,70.2,42.7,29.80,SSE,148,2.0,4.0,37,0.00,,,0.00,183,WeatherHawk,2013-05-17 13:33:00,
2013-05-17 06:34:00,70.2,42.7,29.80,SSE,148,2.0,4.0,37,0.00,,,0.00,183,WeatherHawk,2013-05-17 13:34:00,
2013-05-17 06:38:00,70.3,43.5,29.80,SE,143,4.0,4.0,38,0.00,,,0.00,159,WeatherHawk,2013-05-17 13:38:00,
2013-05-17 06:39:00,70.3,43.5,29.80,SE,143,4.0,4.0,38,0.00,,,0.00,159,WeatherHawk,2013-05-17 13:39:00,
2013-05-17 06:40:00,70.3,43.5,29.80,SE,125,4.0,4.0,38,0.00,,,0.00,141,WeatherHawk,2013-05-17 13:40:00,
2013-05-17 06:44:00,70.3,43.5,29.80,SE,146,2.0,4.0,38,0.00,,,0.00,136,WeatherHawk,2013-05-17 13:44:00,
2013-05-17 06:45:00,70.3,43.5,29.80,SSE,148,3.0,4.0,38,0.00,,,0.00,165,WeatherHawk,2013-05-17 13:45:00,
2013-05-17 06:46:00,70.3,43.5,29.80,SSE,155,3.0,4.0,38,0.00,,,0.00,147,WeatherHawk,2013-05-17 13:46:00,
2013-05-17 06:47:00,70.3,43.5,29.80,SSE,156,3.0,4.0,38,0.00,,,0.00,132,WeatherHawk,2013-05-17 13:47:00,
2013-05-17 06:48:00,70.5,43.7,29.80,SE,145,3.0,4.0,38,0.00,,,0.00,157,WeatherHawk,2013-05-17 13:48:00,
2013-05-17 06:50:00,70.5,44.4,29.80,SSE,148,3.0,-999.0,39,0.00,,,0.00,168,WeatherHawk,2013-05-17 13:50:00,
2013-05-17 06:51:00,70.5,44.4,29.80,SSE,156,3.0,4.0,39,0.00,,,0.00,171,WeatherHawk,2013-05-17 13:51:00,
2013-05-17 06:53:00,70.7,44.5,29.80,SSE,153,4.0,4.0,39,0.00,,,0.00,133,WeatherHawk,2013-05-17 13:53:00,
2013-05-17 06:55:00,70.7,44.5,29.81,SE,142,4.0,4.0,39,0.00,,,0.00,249,WeatherHawk,2013-05-17 13:55:00,
2013-05-17 07:00:00,71.2,44.3,29.81,SE,135,3.0,4.0,38,0.00,,,0.00,208,WeatherHawk,2013-05-17 14:00:00,
2013-05-17 07:02:00,71.4,44.5,29.81,SE,126,3.0,4.0,38,0.00,,,0.00,311,WeatherHawk,2013-05-17 14:02:00,
2013-05-17 07:03:00,71.6,44.6,29.81,SE,131,3.0,4.0,38,0.00,,,0.00,313,WeatherHawk,2013-05-17 14:03:00,
2013-05-17 07:05:00,72.1,44.4,29.81,SE,145,2.0,4.0,37,0.00,,,0.00,320,WeatherHawk,2013-05-17 14:05:00,
2013-05-17 07:07:00,72.5,44.7,29.81,SSE,150,2.0,4.0,37,0.00,,,0.00,320,WeatherHawk,2013-05-17 14:07:00,
2013-05-17 07:10:00,73.2,43.9,29.81,SE,131,2.0,4.0,35,0.00,,,0.00,271,WeatherHawk,2013-05-17 14:10:00,
2013-05-17 07:11:00,73.4,44.1,29.81,SE,128,2.0,3.0,35,0.00,,,0.00,215,WeatherHawk,2013-05-17 14:11:00,
2013-05-17 07:12:00,73.6,44.2,29.81,ESE,121,2.0,3.0,35,0.00,,,0.00,238,WeatherHawk,2013-05-17 14:12:00,
2013-05-17 07:15:00,73.9,43.8,29.81,SE,145,1.0,-999.0,34,0.00,,,0.00,103,WeatherHawk,2013-05-17 14:15:00,
2013-05-17 07:16:00,74.1,43.9,29.81,SE,141,1.0,3.0,34,0.00,,,0.00,97,WeatherHawk,2013-05-17 14:16:00,
2013-05-17 07:20:00,74.1,43.9,29.81,ESE,122,1.0,3.0,34,0.00,,,0.00,118,WeatherHawk,2013-05-17 14:20:00,
2013-05-17 07:21:00,74.3,44.1,29.81,ESE,113,1.0,2.0,34,0.00,,,0.00,267,WeatherHawk,2013-05-17 14:21:00,
2013-05-17 07:22:00,74.3,44.1,29.81,SE,127,0.0,2.0,34,0.00,,,0.00,219,WeatherHawk,2013-05-17 14:22:00,
2013-05-17 07:24:00,74.7,43.6,29.81,ESE,109,1.0,2.0,33,0.00,,,0.00,387,WeatherHawk,2013-05-17 14:24:00,
2013-05-17 07:26:00,75.2,43.3,29.81,East,81,0.0,2.0,32,0.00,,,0.00,363,WeatherHawk,2013-05-17 14:26:00,
2013-05-17 07:27:00,75.6,43.6,29.81,East,85,1.0,2.0,32,0.00,,,0.00,358,WeatherHawk,2013-05-17 14:27:00,
2013-05-17 07:30:00,76.5,42.7,29.81,ENE,63,0.0,2.0,30,0.00,,,0.00,228,WeatherHawk,2013-05-17 14:30:00,
2013-05-17 07:33:00,76.6,41.1,29.82,NE,37,0.0,1.0,28,0.00,,,0.00,398,WeatherHawk,2013-05-17 14:33:00,
2013-05-17 07:34:00,76.6,39.2,29.82,NNW,340,1.0,1.0,26,0.00,,,0.00,400,WeatherHawk,2013-05-17 14:34:00,
2013-05-17 07:35:00,76.8,38.3,29.82,NW,310,1.0,-999.0,25,0.00,,,0.00,430,WeatherHawk,2013-05-17 14:35:00,
2013-05-17 07:39:00,77.2,39.6,29.82,NW,312,3.0,3.0,26,0.00,,,0.00,458,WeatherHawk,2013-05-17 14:39:00,
2013-05-17 07:40:00,77.2,38.6,29.82,NW,312,4.0,4.0,25,0.00,,,0.00,425,WeatherHawk,2013-05-17 14:40:00,
2013-05-17 07:41:00,77.0,37.4,29.82,NW,308,3.0,0.0,24,0.00,,,0.00,404,WeatherHawk,2013-05-17 14:41:00,
2013-05-17 07:45:00,76.8,38.3,29.82,West,278,2.0,-999.0,25,0.00,,,0.00,423,WeatherHawk,2013-05-17 14:45:00,
2013-05-17 07:48:00,77.2,39.6,29.82,WSW,256,1.0,4.0,26,0.00,,,0.00,504,WeatherHawk,2013-05-17 14:48:00,
2013-05-17 07:49:00,77.4,37.7,29.82,WSW,258,1.0,4.0,24,0.00,,,0.00,548,WeatherHawk,2013-05-17 14:49:00,
2013-05-17 07:50:00,77.4,37.7,29.82,WSW,258,1.0,4.0,24,0.00,,,0.00,548,WeatherHawk,2013-05-17 14:50:00,
2013-05-17 07:54:00,77.9,38.2,29.82,WSW,251,2.0,4.0,24,0.00,,,0.00,554,WeatherHawk,2013-05-17 14:54:00,
2013-05-17 07:55:00,77.9,38.2,29.82,West,266,3.0,4.0,24,0.00,,,0.00,565,WeatherHawk,2013-05-17 14:55:00,
2013-05-17 07:56:00,77.9,37.1,29.83,SW,223,1.0,4.0,23,0.00,,,0.00,612,WeatherHawk,2013-05-17 14:56:00,
2013-05-17 08:00:00,78.1,37.3,29.83,West,273,2.0,4.0,23,0.00,,,0.00,452,WeatherHawk,2013-05-17 15:00:00,
2013-05-17 08:01:00,78.1,37.3,29.83,ESE,121,1.0,0.0,23,0.00,,,0.00,498,WeatherHawk,2013-05-17 15:01:00,
2013-05-17 08:05:00,78.4,37.6,29.83,SE,141,2.0,3.0,23,0.00,,,0.00,259,WeatherHawk,2013-05-17 15:05:00,
2013-05-17 08:08:00,78.1,37.3,29.83,South,188,1.0,3.0,23,0.00,,,0.00,346,WeatherHawk,2013-05-17 15:08:00,
2013-05-17 08:10:00,78.1,36.1,29.83,West,280,1.0,-999.0,22,0.00,,,0.00,265,WeatherHawk,2013-05-17 15:10:00,
2013-05-17 08:11:00,78.3,36.3,29.83,SSE,160,0.0,2.0,22,0.00,,,0.00,271,WeatherHawk,2013-05-17 15:11:00,
2013-05-17 08:13:00,78.3,36.3,29.83,SE,131,1.0,2.0,22,0.00,,,0.00,278,WeatherHawk,2013-05-17 15:13:00,
2013-05-17 08:15:00,78.3,36.3,29.83,SSE,152,1.0,2.0,22,0.00,,,0.00,271,WeatherHawk,2013-05-17 15:15:00,
2013-05-17 08:18:00,77.9,37.1,29.83,NE,34,3.0,3.0,23,0.00,,,0.00,282,WeatherHawk,2013-05-17 15:18:00,
2013-05-17 08:19:00,77.9,37.1,29.83,NE,48,2.0,2.0,23,0.00,,,0.00,252,WeatherHawk,2013-05-17 15:19:00,
2013-05-17 08:20:00,77.5,36.8,29.83,NE,56,2.0,-999.0,23,0.00,,,0.00,292,WeatherHawk,2013-05-17 15:20:00,
2013-05-17 08:21:00,77.5,36.8,29.83,East,96,3.0,4.0,23,0.00,,,0.00,407,WeatherHawk,2013-05-17 15:21:00,
2013-05-17 08:25:00,77.7,37.0,29.83,East,100,5.0,5.0,23,0.00,,,0.00,547,WeatherHawk,2013-05-17 15:25:00,
2013-05-17 08:27:00,77.9,38.2,29.83,SSE,159,3.0,4.0,24,0.00,,,0.00,575,WeatherHawk,2013-05-17 15:27:00,
2013-05-17 08:30:00,78.3,39.5,29.83,East,89,3.0,5.0,25,0.00,,,0.00,503,WeatherHawk,2013-05-17 15:30:00,
2013-05-17 08:32:00,78.1,39.4,29.83,East,88,5.0,5.0,25,0.00,,,0.00,507,WeatherHawk,2013-05-17 15:32:00,
2013-05-17 08:33:00,77.9,38.2,29.83,East,97,4.0,5.0,24,0.00,,,0.00,481,WeatherHawk,2013-05-17 15:33:00,
2013-05-17 08:35:00,77.9,39.2,29.83,ESE,104,6.0,6.0,25,0.00,,,0.00,427,WeatherHawk,2013-05-17 15:35:00,
2013-05-17 08:37:00,77.7,40.1,29.83,East,96,4.0,5.0,26,0.00,,,0.00,507,WeatherHawk,2013-05-17 15:37:00,
2013-05-17 08:40:00,77.9,41.2,29.83,SSE,151,5.0,5.0,27,0.00,,,0.00,709,WeatherHawk,2013-05-17 15:40:00,
2013-05-17 08:41:00,78.3,41.5,29.83,SE,124,5.0,8.0,27,0.00,,,0.00,712,WeatherHawk,2013-05-17 15:41:00,
2013-05-17 08:45:00,78.4,40.7,29.83,SE,125,5.0,8.0,26,0.00,,,0.00,714,WeatherHawk,2013-05-17 15:45:00,
2013-05-17 08:46:00,78.4,38.6,29.83,East,101,5.0,8.0,24,0.00,,,0.00,748,WeatherHawk,2013-05-17 15:46:00,
2013-05-17 08:48:00,78.4,40.7,29.83,ESE,114,5.0,8.0,26,0.00,,,0.00,769,WeatherHawk,2013-05-17 15:48:00,
2013-05-17 08:52:00,78.4,42.6,29.83,ESE,108,8.0,0.0,28,0.00,,,0.00,739,WeatherHawk,2013-05-17 15:52:00,
2013-05-17 08:53:00,78.4,42.6,29.83,ESE,104,7.0,0.0,28,0.00,,,0.00,759,WeatherHawk,2013-05-17 15:53:00,
2013-05-17 08:54:00,78.3,43.4,29.83,SE,125,7.0,8.0,29,0.00,,,0.00,783,WeatherHawk,2013-05-17 15:54:00,
2013-05-17 08:55:00,78.3,43.4,29.83,ESE,121,4.0,8.0,29,0.00,,,0.00,783,WeatherHawk,2013-05-17 15:55:00,
2013-05-17 08:57:00,79.0,45.7,29.83,ESE,109,6.0,8.0,31,0.00,,,0.00,728,WeatherHawk,2013-05-17 15:57:00,
2013-05-17 09:00:00,78.8,46.4,29.83,East,99,4.0,8.0,32,0.00,,,0.00,652,WeatherHawk,2013-05-17 16:00:00,
2013-05-17 09:02:00,78.8,45.6,29.83,SSE,161,6.0,8.0,31,0.00,,,0.00,773,WeatherHawk,2013-05-17 16:02:00,
2013-05-17 09:04:00,78.8,45.6,29.83,ESE,122,6.0,8.0,31,0.00,,,0.00,241,WeatherHawk,2013-05-17 16:04:00,
2013-05-17 09:05:00,78.8,45.6,29.83,ESE,118,4.0,-999.0,31,0.00,,,0.00,425,WeatherHawk,2013-05-17 16:05:00,
2013-05-17 09:07:00,78.6,44.6,29.83,SSE,147,8.0,8.0,30,0.00,,,0.00,461,WeatherHawk,2013-05-17 16:07:00,
2013-05-17 09:09:00,78.6,44.6,29.83,SE,133,6.0,8.0,30,0.00,,,0.00,579,WeatherHawk,2013-05-17 16:09:00,
2013-05-17 09:10:00,78.8,43.8,29.83,SSE,153,5.0,8.0,29,0.00,,,0.00,730,WeatherHawk,2013-05-17 16:10:00,
2013-05-17 09:11:00,79.3,43.4,29.83,SSE,157,7.0,19.0,28,0.00,,,0.00,835,WeatherHawk,2013-05-17 16:11:00,
2013-05-17 09:14:00,79.3,42.4,29.83,SSE,162,4.0,19.0,27,0.00,,,0.00,838,WeatherHawk,2013-05-17 16:14:00,
2013-05-17 09:15:00,79.3,42.4,29.83,SSE,162,4.0,19.0,27,0.00,,,0.00,838,WeatherHawk,2013-05-17 16:15:00,
2013-05-17 09:17:00,79.7,42.7,29.83,SE,130,6.0,19.0,27,0.00,,,0.00,848,WeatherHawk,2013-05-17 16:17:00,
2013-05-17 09:20:00,79.7,42.7,29.83,SE,130,6.0,19.0,27,0.00,,,0.00,848,WeatherHawk,2013-05-17 16:20:00,
2013-05-17 09:25:00,80.6,43.5,29.83,SSW,208,4.0,-999.0,27,0.00,,,0.00,889,WeatherHawk,2013-05-17 16:25:00,
2013-05-17 09:26:00,81.1,44.0,29.84,SW,220,4.0,9.0,27,0.00,,,0.00,892,WeatherHawk,2013-05-17 16:26:00,
2013-05-17 09:27:00,81.3,43.1,29.84,SSW,205,5.0,9.0,26,0.00,,,0.00,899,WeatherHawk,2013-05-17 16:27:00,
2013-05-17 09:30:00,81.5,42.3,29.84,SE,126,2.0,-999.0,25,0.00,,,0.00,882,WeatherHawk,2013-05-17 16:30:00,
2013-05-17 09:32:00,81.7,42.4,29.83,SSE,162,4.0,7.0,25,0.00,,,0.00,830,WeatherHawk,2013-05-17 16:32:00,
2013-05-17 09:33:00,81.7,42.4,29.84,SW,220,3.0,7.0,25,0.00,,,0.00,850,WeatherHawk,2013-05-17 16:33:00,
2013-05-17 09:34:00,81.7,42.4,29.84,NW,306,2.0,7.0,25,0.00,,,0.00,772,WeatherHawk,2013-05-17 16:34:00,
2013-05-17 09:39:00,81.7,42.4,29.84,NNW,348,2.0,7.0,25,0.00,,,0.00,976,WeatherHawk,2013-05-17 16:39:00,
2013-05-17 09:40:00,81.7,42.4,29.83,NNE,20,3.0,0.0,25,0.00,,,0.00,1005,WeatherHawk,2013-05-17 16:40:00,
2013-05-17 09:41:00,81.9,42.6,29.83,SSE,159,4.0,10.0,25,0.00,,,0.00,937,WeatherHawk,2013-05-17 16:41:00,
2013-05-17 09:44:00,82.2,40.7,29.83,WSW,244,6.0,10.0,23,0.00,,,0.00,615,WeatherHawk,2013-05-17 16:44:00,
2013-05-17 09:47:00,82.4,42.0,29.84,SW,221,9.0,10.0,24,0.00,,,0.00,526,WeatherHawk,2013-05-17 16:47:00,
2013-05-17 09:49:00,81.9,41.5,29.84,SSW,199,6.0,10.0,24,0.00,,,0.00,609,WeatherHawk,2013-05-17 16:49:00,
2013-05-17 09:54:00,81.9,41.5,29.84,SSW,212,2.0,0.0,24,0.00,,,0.00,703,WeatherHawk,2013-05-17 16:54:00,
2013-05-17 09:55:00,81.9,39.3,29.84,SW,223,6.0,-999.0,22,0.00,,,0.00,656,WeatherHawk,2013-05-17 16:55:00,
2013-05-17 09:57:00,82.2,40.7,29.84,WNW,288,4.0,0.0,23,0.00,,,0.00,716,WeatherHawk,2013-05-17 16:57:00,
2013-05-17 09:59:00,82.4,40.9,29.84,West,264,6.0,0.0,23,0.00,,,0.00,947,WeatherHawk,2013-05-17 16:59:00,
2013-05-17 10:04:00,82.9,41.3,29.84,WSW,252,5.0,8.0,23,0.00,,,0.00,1069,WeatherHawk,2013-05-17 17:04:00,
2013-05-17 10:08:00,83.3,40.5,29.84,WNW,292,6.0,8.0,22,0.00,,,0.00,830,WeatherHawk,2013-05-17 17:08:00,
2013-05-17 10:09:00,83.3,40.5,29.84,SW,236,6.0,8.0,22,0.00,,,0.00,601,WeatherHawk,2013-05-17 17:09:00,
2013-05-17 10:10:00,83.1,40.3,29.84,SW,230,9.0,9.0,22,0.00,,,0.00,712,WeatherHawk,2013-05-17 17:10:00,
2013-05-17 10:14:00,83.1,40.3,29.84,SW,216,3.0,9.0,22,0.00,,,0.00,782,WeatherHawk,2013-05-17 17:14:00,
2013-05-17 10:16:00,82.9,39.0,29.84,WSW,247,6.0,9.0,21,0.00,,,0.00,613,WeatherHawk,2013-05-17 17:16:00,
2013-05-17 10:19:00,83.3,40.5,29.84,WSW,249,6.0,9.0,22,0.00,,,0.00,1046,WeatherHawk,2013-05-17 17:19:00,
2013-05-17 10:23:00,83.5,40.6,29.84,West,269,3.0,10.0,22,0.00,,,0.00,890,WeatherHawk,2013-05-17 17:23:00,
2013-05-17 10:24:00,83.5,40.6,29.84,NW,322,2.0,10.0,22,0.00,,,0.00,897,WeatherHawk,2013-05-17 17:24:00,
2013-05-17 10:25:00,83.5,40.6,29.84,West,266,4.0,10.0,22,0.00,,,0.00,851,WeatherHawk,2013-05-17 17:25:00,
2013-05-17 10:26:00,83.5,40.6,29.84,WSW,242,1.0,10.0,22,0.00,,,0.00,789,WeatherHawk,2013-05-17 17:26:00,
2013-05-17 10:29:00,83.7,39.6,29.85,WSW,246,3.0,10.0,21,0.00,,,0.00,728,WeatherHawk,2013-05-17 17:29:00,
2013-05-17 10:31:00,84.0,41.1,29.85,WNW,287,3.0,8.0,22,0.00,,,0.00,692,WeatherHawk,2013-05-17 17:31:00,
2013-05-17 10:34:00,84.0,41.1,29.85,WNW,286,5.0,8.0,22,0.00,,,0.00,652,WeatherHawk,2013-05-17 17:34:00,
2013-05-17 10:37:00,83.7,40.8,29.85,NNW,329,4.0,8.0,22,0.00,,,0.00,636,WeatherHawk,2013-05-17 17:37:00,
2013-05-17 10:39:00,83.5,41.8,29.84,WNW,293,1.0,8.0,23,0.00,,,0.00,681,WeatherHawk,2013-05-17 17:39:00,
2013-05-17 10:40:00,83.7,40.8,29.84,West,269,4.0,0.0,22,0.00,,,0.00,769,WeatherHawk,2013-05-17 17:40:00,
2013-05-17 10:43:00,84.0,39.9,29.84,WSW,242,3.0,6.0,21,0.00,,,0.00,799,WeatherHawk,2013-05-17 17:43:00,
2013-05-17 10:44:00,84.2,41.2,29.84,West,279,6.0,-999.0,22,0.00,,,0.00,969,WeatherHawk,2013-05-17 17:44:00,
2013-05-17 10:46:00,84.2,41.2,29.84,WSW,247,3.0,6.0,22,0.00,,,0.00,945,WeatherHawk,2013-05-17 17:46:00,
2013-05-17 10:49:00,84.2,41.2,29.84,WSW,250,5.0,6.0,22,0.00,,,0.00,791,WeatherHawk,2013-05-17 17:49:00,
2013-05-17 10:51:00,84.0,41.1,29.85,SW,225,4.0,0.0,22,0.00,,,0.00,1028,WeatherHawk,2013-05-17 17:51:00,
2013-05-17 10:52:00,84.0,41.1,29.85,WSW,251,4.0,0.0,22,0.00,,,0.00,1093,WeatherHawk,2013-05-17 17:52:00,
2013-05-17 10:55:00,84.4,41.4,29.85,SE,140,2.0,0.0,22,0.00,,,0.00,1028,WeatherHawk,2013-05-17 17:55:00,
2013-05-17 10:57:00,84.9,40.6,29.85,WNW,290,7.0,0.0,21,0.00,,,0.00,1064,WeatherHawk,2013-05-17 17:57:00,
2013-05-17 10:58:00,84.9,40.6,29.85,West,272,6.0,0.0,21,0.00,,,0.00,1053,WeatherHawk,2013-05-17 17:58:00,
2013-05-17 11:01:00,84.6,40.3,29.84,NNW,330,3.0,0.0,21,0.00,,,0.00,758,WeatherHawk,2013-05-17 18:01:00,
2013-05-17 11:03:00,84.7,41.7,29.84,WSW,244,6.0,0.0,22,0.00,,,0.00,865,WeatherHawk,2013-05-17 18:03:00,
2013-05-17 11:04:00,84.7,41.7,29.84,WSW,244,6.0,-999.0,22,0.00,,,0.00,865,WeatherHawk,2013-05-17 18:04:00,
2013-05-17 11:07:00,84.9,41.8,29.84,NNW,330,6.0,0.0,22,0.00,,,0.00,888,WeatherHawk,2013-05-17 18:07:00,
2013-05-17 11:09:00,84.6,41.5,29.84,North,4,4.0,0.0,22,0.00,,,0.00,986,WeatherHawk,2013-05-17 18:09:00,
2013-05-17 11:10:00,84.7,41.7,29.84,WNW,298,5.0,0.0,22,0.00,,,0.00,1005,WeatherHawk,2013-05-17 18:10:00,
2013-05-17 11:11:00,84.7,40.5,29.84,NW,305,4.0,0.0,21,0.00,,,0.00,1026,WeatherHawk,2013-05-17 18:11:00,
2013-05-17 11:14:00,85.5,41.0,29.84,NW,308,2.0,0.0,21,0.00,,,0.00,949,WeatherHawk,2013-05-17 18:14:00,
2013-05-17 11:17:00,86.4,40.5,29.84,SSW,212,4.0,0.0,20,0.00,,,0.00,1250,WeatherHawk,2013-05-17 18:17:00,
2013-05-17 11:19:00,86.5,41.9,29.84,South,179,5.0,0.0,21,0.00,,,0.00,1095,WeatherHawk,2013-05-17 18:19:00,
2013-05-17 11:26:00,86.5,40.7,29.84,West,261,9.0,0.0,20,0.00,,,0.00,944,WeatherHawk,2013-05-17 18:26:00,
2013-05-17 11:28:00,86.0,41.5,29.84,West,259,2.0,6.0,21,0.00,,,0.00,978,WeatherHawk,2013-05-17 18:28:00,
2013-05-17 11:29:00,86.0,41.5,29.84,West,259,2.0,-999.0,21,0.00,,,0.00,978,WeatherHawk,2013-05-17 18:29:00,
2013-05-17 11:30:00,86.2,41.6,29.84,WNW,296,1.0,0.0,21,0.00,,,0.00,922,WeatherHawk,2013-05-17 18:30:00,
2013-05-17 11:31:00,86.5,40.7,29.84,West,264,2.0,0.0,20,0.00,,,0.00,911,WeatherHawk,2013-05-17 18:31:00,
2013-05-17 11:34:00,86.5,40.7,29.84,WNW,292,11.0,0.0,20,0.00,,,0.00,981,WeatherHawk,2013-05-17 18:34:00,
2013-05-17 11:36:00,86.0,41.5,29.84,West,274,5.0,0.0,21,0.00,,,0.00,898,WeatherHawk,2013-05-17 18:36:00,
2013-05-17 11:37:00,85.8,41.3,29.84,West,268,4.0,0.0,21,0.00,,,0.00,901,WeatherHawk,2013-05-17 18:37:00,
2013-05-17 11:39:00,85.8,41.3,29.83,NNE,13,4.0,0.0,21,0.00,,,0.00,879,WeatherHawk,2013-05-17 18:39:00,
2013-05-17 11:42:00,85.8,41.3,29.83,NW,310,3.0,11.0,21,0.00,,,0.00,809,WeatherHawk,2013-05-17 18:42:00,
2013-05-17 11:45:00,85.8,42.5,29.83,West,280,6.0,11.0,22,0.00,,,0.00,613,WeatherHawk,2013-05-17 18:45:00,
2013-05-17 11:46:00,85.6,42.4,29.83,West,281,4.0,11.0,22,0.00,,,0.00,636,WeatherHawk,2013-05-17 18:46:00,
2013-05-17 11:48:00,86.0,42.7,29.83,West,275,5.0,11.0,22,0.00,,,0.00,795,WeatherHawk,2013-05-17 18:48:00,
2013-05-17 11:49:00,86.0,42.7,29.83,West,275,5.0,-999.0,22,0.00,,,0.00,795,WeatherHawk,2013-05-17 18:49:00,
2013-05-17 11:51:00,86.2,41.6,29.83,SSW,213,4.0,0.0,21,0.00,,,0.00,601,WeatherHawk,2013-05-17 18:51:00,
2013-05-17 11:53:00,85.6,41.2,29.83,SSW,197,5.0,0.0,21,0.00,,,0.00,576,WeatherHawk,2013-05-17 18:53:00,
2013-05-17 11:54:00,85.3,40.9,29.83,SSE,165,1.0,0.0,21,0.00,,,0.00,573,WeatherHawk,2013-05-17 18:54:00,
2013-05-17 11:57:00,85.8,41.3,29.83,NNW,329,3.0,0.0,21,0.00,,,0.00,644,WeatherHawk,2013-05-17 18:57:00,
2013-05-17 11:59:00,86.0,41.5,29.83,NW,316,1.0,0.0,21,0.00,,,0.00,721,WeatherHawk,2013-05-17 18:59:00,
2013-05-17 12:00:00,86.2,41.6,29.83,West,274,7.0,0.0,21,0.00,,,0.00,750,WeatherHawk,2013-05-17 19:00:00,
2013-05-17 12:02:00,86.5,41.9,29.83,WNW,285,9.0,9.0,21,0.00,,,0.00,893,WeatherHawk,2013-05-17 19:02:00,
2013-05-17 12:04:00,86.5,41.9,29.83,WNW,288,6.0,9.0,21,0.00,,,0.00,781,WeatherHawk,2013-05-17 19:04:00,
2013-05-17 12:06:00,86.4,41.8,29.83,WNW,287,8.0,9.0,21,0.00,,,0.00,751,WeatherHawk,2013-05-17 19:06:00,
2013-05-17 12:07:00,86.4,41.8,29.83,WNW,282,8.0,9.0,21,0.00,,,0.00,794,WeatherHawk,2013-05-17 19:07:00,
2013-05-17 12:12:00,86.4,41.8,29.83,WSW,249,2.0,9.0,21,0.00,,,0.00,717,WeatherHawk,2013-05-17 19:12:00,
2013-05-17 12:14:00,86.7,43.3,29.83,West,261,3.0,-999.0,22,0.00,,,0.00,668,WeatherHawk,2013-05-17 19:14:00,
2013-05-17 12:15:00,87.1,42.4,29.83,WSW,239,7.0,9.0,21,0.00,,,0.00,584,WeatherHawk,2013-05-17 19:15:00,
2013-05-17 12:17:00,86.7,42.1,29.83,SW,234,4.0,9.0,21,0.00,,,0.00,528,WeatherHawk,2013-05-17 19:17:00,
2013-05-17 12:19:00,86.5,41.9,29.83,SW,230,9.0,9.0,21,0.00,,,0.00,524,WeatherHawk,2013-05-17 19:19:00,
2013-05-17 12:24:00,86.5,41.9,29.82,WSW,244,5.0,11.0,21,0.00,,,0.00,525,WeatherHawk,2013-05-17 19:24:00,
2013-05-17 12:26:00,86.4,43.0,29.82,WNW,292,4.0,11.0,22,0.00,,,0.00,534,WeatherHawk,2013-05-17 19:26:00,
2013-05-17 12:27:00,86.2,44.0,29.82,WNW,299,6.0,11.0,23,0.00,,,0.00,540,WeatherHawk,2013-05-17 19:27:00,
2013-05-17 12:29:00,86.0,41.5,29.82,WNW,298,9.0,-999.0,21,0.00,,,0.00,573,WeatherHawk,2013-05-17 19:29:00,
2013-05-17 12:32:00,86.0,42.7,29.82,WNW,301,8.0,9.0,22,0.00,,,0.00,631,WeatherHawk,2013-05-17 19:32:00,
2013-05-17 12:33:00,86.2,41.6,29.82,WNW,293,10.0,10.0,21,0.00,,,0.00,578,WeatherHawk,2013-05-17 19:33:00,
2013-05-17 12:35:00,86.4,41.8,29.83,WNW,282,9.0,9.0,21,0.00,,,0.00,528,WeatherHawk,2013-05-17 19:35:00,
2013-05-17 12:37:00,86.4,40.5,29.83,West,279,8.0,9.0,20,0.00,,,0.00,506,WeatherHawk,2013-05-17 19:37:00,
2013-05-17 12:39:00,86.4,41.8,29.83,WNW,286,8.0,9.0,21,0.00,,,0.00,500,WeatherHawk,2013-05-17 19:39:00,
2013-05-17 12:42:00,86.2,40.4,29.83,West,281,8.0,11.0,20,0.00,,,0.00,576,WeatherHawk,2013-05-17 19:42:00,
2013-05-17 12:43:00,86.0,41.5,29.83,West,269,7.0,11.0,21,0.00,,,0.00,523,WeatherHawk,2013-05-17 19:43:00,
2013-05-17 12:44:00,86.0,41.5,29.83,West,260,6.0,-999.0,21,0.00,,,0.00,492,WeatherHawk,2013-05-17 19:44:00,
2013-05-17 12:47:00,86.2,41.6,29.83,West,270,8.0,11.0,21,0.00,,,0.00,431,WeatherHawk,2013-05-17 19:47:00,
2013-05-17 12:48:00,86.2,42.8,29.83,West,274,9.0,11.0,22,0.00,,,0.00,418,WeatherHawk,2013-05-17 19:48:00,
2013-05-17 12:49:00,86.2,41.6,29.83,WNW,285,11.0,11.0,21,0.00,,,0.00,412,WeatherHawk,2013-05-17 19:49:00,
2013-05-17 12:51:00,85.8,41.3,29.82,WNW,296,10.0,12.0,21,0.00,,,0.00,410,WeatherHawk,2013-05-17 19:51:00,
2013-05-17 12:54:00,85.8,41.3,29.82,WNW,296,10.0,-999.0,21,0.00,,,0.00,410,WeatherHawk,2013-05-17 19:54:00,
2013-05-17 12:58:00,85.6,38.6,29.83,WNW,291,11.0,12.0,19,0.00,,,0.00,506,WeatherHawk,2013-05-17 19:58:00,
2013-05-17 12:59:00,85.6,38.6,29.83,WNW,291,11.0,-999.0,19,0.00,,,0.00,506,WeatherHawk,2013-05-17 19:59:00,
2013-05-17 13:00:00,85.6,39.9,29.83,WNW,293,11.0,12.0,20,0.00,,,0.00,530,WeatherHawk,2013-05-17 20:00:00,
2013-05-17 13:03:00,85.6,42.4,29.83,West,281,9.0,12.0,22,0.00,,,0.00,620,WeatherHawk,2013-05-17 20:03:00,
2013-05-17 13:04:00,85.6,42.4,29.83,West,281,9.0,12.0,22,0.00,,,0.00,620,WeatherHawk,2013-05-17 20:04:00,
2013-05-17 13:07:00,86.2,42.8,29.82,WNW,291,9.0,12.0,22,0.00,,,0.00,1142,WeatherHawk,2013-05-17 20:07:00,
2013-05-17 13:09:00,86.4,39.2,29.82,NW,312,7.0,12.0,19,0.00,,,0.00,1167,WeatherHawk,2013-05-17 20:09:00,
2013-05-17 13:11:00,86.7,39.5,29.82,WNW,303,9.0,0.0,19,0.00,,,0.00,1198,WeatherHawk,2013-05-17 20:11:00,
2013-05-17 13:12:00,86.7,42.1,29.82,West,277,8.0,0.0,21,0.00,,,0.00,1264,WeatherHawk,2013-05-17 20:12:00,
2013-05-17 13:16:00,87.1,37.0,29.82,WNW,282,10.0,0.0,17,0.00,,,0.00,1278,WeatherHawk,2013-05-17 20:16:00,
2013-05-17 13:19:00,87.4,35.7,29.82,WNW,301,8.0,0.0,16,0.00,,,0.00,1251,WeatherHawk,2013-05-17 20:19:00,
2013-05-17 13:23:00,87.8,36.0,29.82,NW,315,10.0,0.0,16,0.00,,,0.00,1064,WeatherHawk,2013-05-17 20:23:00,
2013-05-17 13:24:00,87.8,36.0,29.82,NW,315,10.0,0.0,16,0.00,,,0.00,1064,WeatherHawk,2013-05-17 20:24:00,
2013-05-17 13:26:00,87.6,35.9,29.82,West,277,4.0,0.0,16,0.00,,,0.00,1196,WeatherHawk,2013-05-17 20:26:00,
2013-05-17 13:29:00,87.6,35.9,29.82,WNW,289,6.0,-999.0,16,0.00,,,0.00,1232,WeatherHawk,2013-05-17 20:29:00,
2013-05-17 13:30:00,88.2,36.3,29.82,WNW,291,12.0,0.0,16,0.00,,,0.00,1162,WeatherHawk,2013-05-17 20:30:00,
2013-05-17 13:32:00,88.2,34.7,29.82,WNW,282,10.0,0.0,15,0.00,,,0.00,1187,WeatherHawk,2013-05-17 20:32:00,
2013-05-17 13:34:00,88.2,34.7,29.82,WNW,282,10.0,0.0,15,0.00,,,0.00,1187,WeatherHawk,2013-05-17 20:34:00,
2013-05-17 13:37:00,88.5,34.9,29.82,NW,319,9.0,0.0,15,0.00,,,0.00,1136,WeatherHawk,2013-05-17 20:37:00,
2013-05-17 13:38:00,88.3,34.8,29.82,WNW,295,7.0,0.0,15,0.00,,,0.00,1154,WeatherHawk,2013-05-17 20:38:00,
2013-05-17 13:42:00,88.9,36.9,29.82,WNW,303,8.0,0.0,16,0.00,,,0.00,1146,WeatherHawk,2013-05-17 20:42:00,
2013-05-17 13:44:00,88.7,35.1,29.82,WNW,294,8.0,0.0,15,0.00,,,0.00,890,WeatherHawk,2013-05-17 20:44:00,
2013-05-17 13:49:00,87.8,36.0,29.82,West,279,10.0,0.0,16,0.00,,,0.00,1060,WeatherHawk,2013-05-17 20:49:00,
2013-05-17 13:50:00,88.0,36.1,29.82,WNW,299,12.0,13.0,16,0.00,,,0.00,1102,WeatherHawk,2013-05-17 20:50:00,
2013-05-17 13:52:00,88.2,34.7,29.82,NW,313,8.0,13.0,15,0.00,,,0.00,1091,WeatherHawk,2013-05-17 20:52:00,
2013-05-17 13:54:00,88.2,34.7,29.82,NW,313,8.0,13.0,15,0.00,,,0.00,1091,WeatherHawk,2013-05-17 20:54:00,
2013-05-17 13:59:00,88.3,39.4,29.82,West,272,12.0,13.0,18,0.00,,,0.00,609,WeatherHawk,2013-05-17 20:59:00,
2013-05-17 14:02:00,88.7,36.7,29.82,WSW,240,6.0,13.0,16,0.00,,,0.00,1129,WeatherHawk,2013-05-17 21:02:00,
2013-05-17 14:03:00,88.9,36.9,29.82,West,271,5.0,13.0,16,0.00,,,0.00,993,WeatherHawk,2013-05-17 21:03:00,
2013-05-17 14:06:00,89.1,38.5,29.82,West,279,6.0,13.0,17,0.00,,,0.00,1160,WeatherHawk,2013-05-17 21:06:00,
2013-05-17 14:09:00,89.1,38.5,29.82,WNW,289,17.0,17.0,17,0.00,,,0.00,1162,WeatherHawk,2013-05-17 21:09:00,
2013-05-17 14:11:00,89.1,37.0,29.82,WNW,286,8.0,17.0,16,0.00,,,0.00,1131,WeatherHawk,2013-05-17 21:11:00,
2013-05-17 14:12:00,89.1,37.0,29.82,West,260,8.0,17.0,16,0.00,,,0.00,1070,WeatherHawk,2013-05-17 21:12:00,
2013-05-17 14:14:00,88.9,36.9,29.82,WSW,254,6.0,17.0,16,0.00,,,0.00,391,WeatherHawk,2013-05-17 21:14:00,
2013-05-17 14:15:00,88.9,36.9,29.82,WNW,284,11.0,17.0,16,0.00,,,0.00,1053,WeatherHawk,2013-05-17 21:15:00,
2013-05-17 14:17:00,88.7,38.3,29.82,West,267,11.0,17.0,17,0.00,,,0.00,1057,WeatherHawk,2013-05-17 21:17:00,
2013-05-17 14:19:00,88.7,38.3,29.82,West,267,11.0,17.0,17,0.00,,,0.00,1057,WeatherHawk,2013-05-17 21:19:00,
2013-05-17 14:23:00,88.7,36.7,29.82,SW,228,10.0,14.0,16,0.00,,,0.00,973,WeatherHawk,2013-05-17 21:23:00,
2013-05-17 14:24:00,88.7,36.7,29.82,SW,228,10.0,14.0,16,0.00,,,0.00,973,WeatherHawk,2013-05-17 21:24:00,
2013-05-17 14:26:00,89.1,37.0,29.82,SW,232,7.0,14.0,16,0.00,,,0.00,940,WeatherHawk,2013-05-17 21:26:00,
2013-05-17 14:27:00,89.1,37.0,29.82,SSW,211,9.0,14.0,16,0.00,,,0.00,886,WeatherHawk,2013-05-17 21:27:00,
2013-05-17 14:28:00,89.2,37.1,29.82,SW,233,6.0,14.0,16,0.00,,,0.00,847,WeatherHawk,2013-05-17 21:28:00,
2013-05-17 14:29:00,89.1,37.0,29.82,SW,232,8.0,14.0,16,0.00,,,0.00,680,WeatherHawk,2013-05-17 21:29:00,
2013-05-17 14:32:00,88.9,36.9,29.81,SW,221,9.0,12.0,16,0.00,,,0.00,717,WeatherHawk,2013-05-17 21:32:00,
2013-05-17 14:33:00,88.9,36.9,29.81,WSW,257,9.0,12.0,16,0.00,,,0.00,937,WeatherHawk,2013-05-17 21:33:00,
2013-05-17 14:34:00,88.9,36.9,29.81,WSW,257,9.0,12.0,16,0.00,,,0.00,937,WeatherHawk,2013-05-17 21:34:00,
2013-05-17 14:37:00,89.1,38.5,29.81,WSW,253,7.0,12.0,17,0.00,,,0.00,1012,WeatherHawk,2013-05-17 21:37:00,
2013-05-17 14:39:00,89.1,38.5,29.81,WSW,256,7.0,12.0,17,0.00,,,0.00,1011,WeatherHawk,2013-05-17 21:39:00,
2013-05-17 14:40:00,89.4,37.3,29.81,SW,235,9.0,12.0,16,0.00,,,0.00,916,WeatherHawk,2013-05-17 21:40:00,
2013-05-17 14:43:00,89.4,37.3,29.81,SW,225,5.0,13.0,16,0.00,,,0.00,857,WeatherHawk,2013-05-17 21:43:00,
2013-05-17 14:45:00,89.4,37.3,29.81,SW,230,11.0,13.0,16,0.00,,,0.00,929,WeatherHawk,2013-05-17 21:45:00,
2013-05-17 14:48:00,89.2,37.1,29.81,WSW,241,2.0,13.0,16,0.00,,,0.00,858,WeatherHawk,2013-05-17 21:48:00,
2013-05-17 14:50:00,89.2,37.1,29.81,SW,230,8.0,13.0,16,0.00,,,0.00,906,WeatherHawk,2013-05-17 21:50:00,
2013-05-17 14:51:00,89.2,37.1,29.80,SW,229,6.0,0.0,16,0.00,,,0.00,699,WeatherHawk,2013-05-17 21:51:00,
2013-05-17 14:55:00,89.2,37.1,29.80,WSW,251,8.0,11.0,16,0.00,,,0.00,671,WeatherHawk,2013-05-17 21:55:00,
2013-05-17 15:00:00,89.1,35.4,29.80,SW,229,3.0,11.0,15,0.00,,,0.00,316,WeatherHawk,2013-05-17 22:00:00,
2013-05-17 15:01:00,89.2,37.1,29.80,SSW,208,5.0,0.0,16,0.00,,,0.00,564,WeatherHawk,2013-05-17 22:01:00,
2013-05-17 15:05:00,90.0,37.7,29.80,SSW,201,6.0,9.0,16,0.00,,,0.00,657,WeatherHawk,2013-05-17 22:05:00,
2013-05-17 15:07:00,90.5,38.1,29.80,WSW,237,8.0,9.0,16,0.00,,,0.00,417,WeatherHawk,2013-05-17 22:07:00,
2013-05-17 15:09:00,90.3,38.0,29.80,West,269,6.0,9.0,16,0.00,,,0.00,394,WeatherHawk,2013-05-17 22:09:00,
2013-05-17 15:10:00,90.3,38.0,29.80,West,269,6.0,9.0,16,0.00,,,0.00,394,WeatherHawk,2013-05-17 22:10:00,
2013-05-17 15:14:00,90.1,36.2,29.80,SW,231,6.0,10.0,15,0.00,,,0.00,787,WeatherHawk,2013-05-17 22:14:00,
2013-05-17 15:15:00,90.1,36.2,29.80,SW,231,6.0,10.0,15,0.00,,,0.00,787,WeatherHawk,2013-05-17 22:15:00,
2013-05-17 15:16:00,90.1,36.2,29.79,SSW,213,8.0,10.0,15,0.00,,,0.00,855,WeatherHawk,2013-05-17 22:16:00,
2013-05-17 15:19:00,90.0,37.7,29.79,SW,236,9.0,10.0,16,0.00,,,0.00,755,WeatherHawk,2013-05-17 22:19:00,
2013-05-17 15:20:00,90.1,36.2,29.79,West,269,9.0,10.0,15,0.00,,,0.00,912,WeatherHawk,2013-05-17 22:20:00,
2013-05-17 15:24:00,90.0,36.1,29.79,SW,234,6.0,11.0,15,0.00,,,0.00,845,WeatherHawk,2013-05-17 22:24:00,
2013-05-17 15:25:00,90.0,36.1,29.79,SW,234,6.0,-999.0,15,0.00,,,0.00,845,WeatherHawk,2013-05-17 22:25:00,
2013-05-17 15:27:00,90.0,36.1,29.79,WSW,250,11.0,11.0,15,0.00,,,0.00,814,WeatherHawk,2013-05-17 22:27:00,
2013-05-17 15:30:00,90.1,36.2,29.79,WSW,250,8.0,11.0,15,0.00,,,0.00,672,WeatherHawk,2013-05-17 22:30:00,
2013-05-17 15:32:00,90.3,38.0,29.79,West,259,11.0,13.0,16,0.00,,,0.00,609,WeatherHawk,2013-05-17 22:32:00,
2013-05-17 15:35:00,90.5,36.5,29.79,WSW,243,13.0,13.0,15,0.00,,,0.00,700,WeatherHawk,2013-05-17 22:35:00,
2013-05-17 15:36:00,90.5,36.5,29.79,WSW,244,9.0,13.0,15,0.00,,,0.00,537,WeatherHawk,2013-05-17 22:36:00,
2013-05-17 15:40:00,90.5,36.5,29.78,WSW,254,9.0,-999.0,15,0.00,,,0.00,433,WeatherHawk,2013-05-17 22:40:00,
2013-05-17 15:42:00,90.5,36.5,29.78,WSW,252,10.0,13.0,15,0.00,,,0.00,716,WeatherHawk,2013-05-17 22:42:00,
2013-05-17 15:45:00,90.5,34.8,29.78,West,261,6.0,-999.0,14,0.00,,,0.00,882,WeatherHawk,2013-05-17 22:45:00,
2013-05-17 15:48:00,91.0,36.9,29.78,WNW,295,9.0,13.0,15,0.00,,,0.00,866,WeatherHawk,2013-05-17 22:48:00,
2013-05-17 15:49:00,91.0,36.9,29.78,WNW,283,6.0,13.0,15,0.00,,,0.00,870,WeatherHawk,2013-05-17 22:49:00,
2013-05-17 15:50:00,91.0,36.9,29.78,WNW,283,6.0,13.0,15,0.00,,,0.00,870,WeatherHawk,2013-05-17 22:50:00,
2013-05-17 15:55:00,91.2,37.1,29.78,WNW,283,7.0,-999.0,15,0.00,,,0.00,720,WeatherHawk,2013-05-17 22:55:00,
2013-05-17 15:57:00,91.2,35.3,29.78,West,264,7.0,11.0,14,0.00,,,0.00,849,WeatherHawk,2013-05-17 22:57:00,
2013-05-17 16:00:00,91.0,36.9,29.78,NW,317,4.0,11.0,15,0.00,,,0.00,843,WeatherHawk,2013-05-17 23:00:00,
2013-05-17 16:01:00,91.2,37.1,29.78,West,270,10.0,10.0,15,0.00,,,0.00,832,WeatherHawk,2013-05-17 23:01:00,
2013-05-17 16:03:00,91.2,37.1,29.78,WNW,285,3.0,9.0,15,0.00,,,0.00,839,WeatherHawk,2013-05-17 23:03:00,
2013-05-17 16:05:00,91.4,37.2,29.78,WSW,249,6.0,9.0,15,0.00,,,0.00,645,WeatherHawk,2013-05-17 23:05:00,
2013-05-17 16:06:00,91.4,37.2,29.78,West,270,7.0,9.0,15,0.00,,,0.00,677,WeatherHawk,2013-05-17 23:06:00,
2013-05-17 16:08:00,91.6,37.4,29.78,WNW,292,5.0,9.0,15,0.00,,,0.00,442,WeatherHawk,2013-05-17 23:08:00,
2013-05-17 16:10:00,91.8,37.5,29.78,West,280,9.0,9.0,15,0.00,,,0.00,539,WeatherHawk,2013-05-17 23:10:00,
2013-05-17 16:11:00,91.6,35.6,29.78,West,263,9.0,0.0,14,0.00,,,0.00,827,WeatherHawk,2013-05-17 23:11:00,
2013-05-17 16:15:00,91.8,35.8,29.77,SSW,205,5.0,-999.0,14,0.00,,,0.00,805,WeatherHawk,2013-05-17 23:15:00,
2013-05-17 16:16:00,91.8,35.8,29.77,WSW,249,6.0,10.0,14,0.00,,,0.00,832,WeatherHawk,2013-05-17 23:16:00,
2013-05-17 16:17:00,91.8,35.8,29.77,SW,220,3.0,10.0,14,0.00,,,0.00,825,WeatherHawk,2013-05-17 23:17:00,
2013-05-17 16:19:00,91.9,37.6,29.77,West,265,9.0,10.0,15,0.00,,,0.00,732,WeatherHawk,2013-05-17 23:19:00,
2013-05-17 16:20:00,91.9,37.6,29.77,West,265,9.0,10.0,15,0.00,,,0.00,732,WeatherHawk,2013-05-17 23:20:00,
2013-05-17 16:24:00,91.9,34.0,29.77,SW,223,10.0,0.0,13,0.00,,,0.00,669,WeatherHawk,2013-05-17 23:24:00,
2013-05-17 16:25:00,91.9,34.0,29.77,SW,223,10.0,0.0,13,0.00,,,0.00,669,WeatherHawk,2013-05-17 23:25:00,
2013-05-17 16:29:00,91.4,35.5,29.77,West,270,6.0,12.0,14,0.00,,,0.00,705,WeatherHawk,2013-05-17 23:29:00,
2013-05-17 16:30:00,91.4,35.5,29.77,West,270,6.0,12.0,14,0.00,,,0.00,705,WeatherHawk,2013-05-17 23:30:00,
2013-05-17 16:32:00,91.6,33.8,29.77,WSW,253,7.0,11.0,13,0.00,,,0.00,417,WeatherHawk,2013-05-17 23:32:00,
2013-05-17 16:35:00,91.4,33.6,29.77,West,267,8.0,11.0,13,0.00,,,0.00,346,WeatherHawk,2013-05-17 23:35:00,
2013-05-17 16:37:00,91.4,33.6,29.77,WSW,258,10.0,11.0,13,0.00,,,0.00,673,WeatherHawk,2013-05-17 23:37:00,
2013-05-17 16:38:00,91.4,33.6,29.77,West,265,7.0,11.0,13,0.00,,,0.00,470,WeatherHawk,2013-05-17 23:38:00,
2013-05-17 16:39:00,91.6,35.6,29.76,West,260,8.0,11.0,14,0.00,,,0.00,470,WeatherHawk,2013-05-17 23:39:00,
2013-05-17 16:40:00,91.6,35.6,29.76,WSW,245,9.0,0.0,14,0.00,,,0.00,311,WeatherHawk,2013-05-17 23:40:00,
2013-05-17 16:41:00,91.4,35.5,29.76,WSW,244,6.0,0.0,14,0.00,,,0.00,292,WeatherHawk,2013-05-17 23:41:00,
2013-05-17 16:43:00,91.4,35.5,29.76,West,267,6.0,11.0,14,0.00,,,0.00,333,WeatherHawk,2013-05-17 23:43:00,
2013-05-17 16:46:00,91.4,33.6,29.76,WSW,240,7.0,11.0,13,0.00,,,0.00,300,WeatherHawk,2013-05-17 23:46:00,
2013-05-17 16:47:00,91.4,35.5,29.76,WSW,245,8.0,11.0,14,0.00,,,0.00,324,WeatherHawk,2013-05-17 23:47:00,
2013-05-17 16:48:00,91.2,33.5,29.76,SW,230,4.0,11.0,13,0.00,,,0.00,294,WeatherHawk,2013-05-17 23:48:00,
2013-05-17 16:49:00,91.0,35.2,29.76,WSW,251,5.0,11.0,14,0.00,,,0.00,297,WeatherHawk,2013-05-17 23:49:00,
2013-05-17 16:53:00,91.0,35.2,29.76,SW,228,6.0,11.0,14,0.00,,,0.00,313,WeatherHawk,2013-05-17 23:53:00,
2013-05-17 16:54:00,91.0,35.2,29.76,WSW,243,7.0,11.0,14,0.00,,,0.00,292,WeatherHawk,2013-05-17 23:54:00,
2013-05-17 16:55:00,91.0,35.2,29.76,WSW,243,7.0,11.0,14,0.00,,,0.00,292,WeatherHawk,2013-05-17 23:55:00,
2013-05-17 16:58:00,91.0,33.3,29.76,WSW,241,7.0,11.0,13,0.00,,,0.00,195,WeatherHawk,2013-05-17 23:58:00,
2013-05-17 17:00:00,90.9,33.2,29.76,SSW,198,6.0,11.0,13,0.00,,,0.00,241,WeatherHawk,2013-05-18 00:00:00,
2013-05-17 17:01:00,90.9,33.2,29.76,SW,232,4.0,10.0,13,0.00,,,0.00,277,WeatherHawk,2013-05-18 00:01:00,
2013-05-17 17:05:00,90.5,36.5,29.76,SSW,206,8.0,10.0,15,0.00,,,0.00,206,WeatherHawk,2013-05-18 00:05:00,
2013-05-17 17:08:00,90.3,36.4,29.76,WSW,237,6.0,10.0,15,0.00,,,0.00,191,WeatherHawk,2013-05-18 00:08:00,
2013-05-17 17:09:00,90.5,36.5,29.76,SSW,213,6.0,-999.0,15,0.00,,,0.00,189,WeatherHawk,2013-05-18 00:09:00,
2013-05-17 17:10:00,90.5,34.8,29.76,SSW,195,6.0,0.0,14,0.00,,,0.00,193,WeatherHawk,2013-05-18 00:10:00,
2013-05-17 17:12:00,90.9,35.1,29.76,SSW,207,5.0,9.0,14,0.00,,,0.00,205,WeatherHawk,2013-05-18 00:12:00,
2013-05-17 17:13:00,90.9,35.1,29.76,SSW,202,4.0,9.0,14,0.00,,,0.00,204,WeatherHawk,2013-05-18 00:13:00,
2013-05-17 17:14:00,90.9,35.1,29.76,SSW,199,4.0,9.0,14,0.00,,,0.00,191,WeatherHawk,2013-05-18 00:14:00,
2013-05-17 17:15:00,90.9,35.1,29.76,SW,214,7.0,9.0,14,0.00,,,0.00,221,WeatherHawk,2013-05-18 00:15:00,
2013-05-17 17:18:00,90.5,34.8,29.76,SW,219,6.0,9.0,14,0.00,,,0.00,306,WeatherHawk,2013-05-18 00:18:00,
2013-05-17 17:19:00,90.5,34.8,29.76,SW,217,5.0,9.0,14,0.00,,,0.00,352,WeatherHawk,2013-05-18 00:19:00,
2013-05-17 17:23:00,90.7,36.7,29.76,West,260,4.0,8.0,15,0.00,,,0.00,399,WeatherHawk,2013-05-18 00:23:00,
2013-05-17 17:24:00,90.9,36.8,29.76,SSW,210,4.0,8.0,15,0.00,,,0.00,380,WeatherHawk,2013-05-18 00:24:00,
2013-05-17 17:27:00,90.7,36.7,29.76,WSW,256,6.0,8.0,15,0.00,,,0.00,232,WeatherHawk,2013-05-18 00:27:00,
2013-05-17 17:28:00,90.7,36.7,29.76,WSW,255,7.0,8.0,15,0.00,,,0.00,220,WeatherHawk,2013-05-18 00:28:00,
2013-05-17 17:29:00,90.7,36.7,29.76,West,267,5.0,8.0,15,0.00,,,0.00,214,WeatherHawk,2013-05-18 00:29:00,
2013-05-17 17:34:00,90.7,36.7,29.76,WSW,247,5.0,9.0,15,0.00,,,0.00,360,WeatherHawk,2013-05-18 00:34:00,
2013-05-17 17:35:00,90.9,38.4,29.76,WSW,252,6.0,9.0,16,0.00,,,0.00,293,WeatherHawk,2013-05-18 00:35:00,
2013-05-17 17:39:00,90.9,36.8,29.76,WSW,247,6.0,9.0,15,0.00,,,0.00,210,WeatherHawk,2013-05-18 00:39:00,
2013-05-17 17:41:00,90.9,36.8,29.76,WSW,239,4.0,0.0,15,0.00,,,0.00,148,WeatherHawk,2013-05-18 00:41:00,
2013-05-17 17:42:00,90.7,36.7,29.76,SW,225,5.0,0.0,15,0.00,,,0.00,141,WeatherHawk,2013-05-18 00:42:00,
2013-05-17 17:46:00,90.5,36.5,29.76,West,259,5.0,0.0,15,0.00,,,0.00,121,WeatherHawk,2013-05-18 00:46:00,
2013-05-17 17:48:00,90.5,36.5,29.76,WSW,243,5.0,0.0,15,0.00,,,0.00,127,WeatherHawk,2013-05-18 00:48:00,
2013-05-17 17:49:00,90.5,36.5,29.76,WSW,250,5.0,0.0,15,0.00,,,0.00,128,WeatherHawk,2013-05-18 00:49:00,
2013-05-17 17:53:00,90.3,36.4,29.76,SW,231,5.0,6.0,15,0.00,,,0.00,179,WeatherHawk,2013-05-18 00:53:00,
2013-05-17 17:54:00,90.3,36.4,29.76,SW,231,5.0,-999.0,15,0.00,,,0.00,179,WeatherHawk,2013-05-18 00:54:00,
2013-05-17 17:55:00,90.5,36.5,29.76,SW,221,6.0,6.0,15,0.00,,,0.00,318,WeatherHawk,2013-05-18 00:55:00,
2013-05-17 17:58:00,90.5,36.5,29.76,WSW,244,7.0,7.0,15,0.00,,,0.00,311,WeatherHawk,2013-05-18 00:58:00,
2013-05-17 18:00:00,90.7,34.9,29.76,SW,221,6.0,0.0,14,0.00,,,0.00,298,WeatherHawk,2013-05-18 01:00:00,
2013-05-17 18:04:00,90.7,34.9,29.75,SW,225,6.0,7.0,14,0.00,,,0.00,292,WeatherHawk,2013-05-18 01:04:00,
2013-05-17 18:05:00,90.7,34.9,29.76,SW,231,6.0,7.0,14,0.00,,,0.00,160,WeatherHawk,2013-05-18 01:05:00,
2013-05-17 18:09:00,90.5,36.5,29.76,WSW,237,4.0,7.0,15,0.00,,,0.00,99,WeatherHawk,2013-05-18 01:09:00,
2013-05-17 18:11:00,90.5,36.5,29.76,SW,233,6.0,7.0,15,0.00,,,0.00,201,WeatherHawk,2013-05-18 01:11:00,
2013-05-17 18:14:00,90.5,36.5,29.76,SW,228,4.0,7.0,15,0.00,,,0.00,229,WeatherHawk,2013-05-18 01:14:00,
2013-05-17 18:18:00,90.5,36.5,29.76,SW,219,6.0,7.0,15,0.00,,,0.00,220,WeatherHawk,2013-05-18 01:18:00,
2013-05-17 18:19:00,90.5,36.5,29.76,SW,219,6.0,7.0,15,0.00,,,0.00,220,WeatherHawk,2013-05-18 01:19:00,
2013-05-17 18:21:00,90.5,36.5,29.76,SW,229,6.0,7.0,15,0.00,,,0.00,213,WeatherHawk,2013-05-18 01:21:00,
2013-05-17 18:23:00,90.5,36.5,29.76,West,260,6.0,7.0,15,0.00,,,0.00,204,WeatherHawk,2013-05-18 01:23:00,
2013-05-17 18:27:00,90.5,36.5,29.76,SW,232,6.0,7.0,15,0.00,,,0.00,181,WeatherHawk,2013-05-18 01:27:00,
2013-05-17 18:29:00,90.5,36.5,29.76,SW,222,7.0,7.0,15,0.00,,,0.00,175,WeatherHawk,2013-05-18 01:29:00,
2013-05-17 18:34:00,90.3,36.4,29.76,WSW,241,6.0,8.0,15,0.00,,,0.00,158,WeatherHawk,2013-05-18 01:34:00,
2013-05-17 18:37:00,90.3,36.4,29.76,SW,230,6.0,8.0,15,0.00,,,0.00,144,WeatherHawk,2013-05-18 01:37:00,
2013-05-17 18:38:00,90.3,36.4,29.76,SW,216,5.0,8.0,15,0.00,,,0.00,133,WeatherHawk,2013-05-18 01:38:00,
2013-05-17 18:39:00,90.3,36.4,29.76,SW,216,5.0,8.0,15,0.00,,,0.00,133,WeatherHawk,2013-05-18 01:39:00,
2013-05-17 18:44:00,90.1,36.2,29.76,SW,220,5.0,0.0,15,0.00,,,0.00,104,WeatherHawk,2013-05-18 01:44:00,
2013-05-17 18:49:00,90.0,36.1,29.76,SW,228,6.0,0.0,15,0.00,,,0.00,98,WeatherHawk,2013-05-18 01:49:00,
2013-05-17 18:50:00,90.0,37.7,29.76,SW,216,7.0,0.0,16,0.00,,,0.00,86,WeatherHawk,2013-05-18 01:50:00,
2013-05-17 18:53:00,89.8,37.6,29.76,SW,230,6.0,7.0,16,0.00,,,0.00,76,WeatherHawk,2013-05-18 01:53:00,
2013-05-17 18:54:00,89.8,37.6,29.76,SW,230,6.0,7.0,16,0.00,,,0.00,76,WeatherHawk,2013-05-18 01:54:00,
2013-05-17 18:55:00,89.8,37.6,29.76,SW,230,4.0,7.0,16,0.00,,,0.00,69,WeatherHawk,2013-05-18 01:55:00,
2013-05-17 18:59:00,89.8,37.6,29.77,WSW,238,5.0,7.0,16,0.00,,,0.00,57,WeatherHawk,2013-05-18 01:59:00,
2013-05-17 19:02:00,89.4,41.7,29.77,West,269,9.0,9.0,19,0.00,,,0.00,51,WeatherHawk,2013-05-18 02:02:00,
2013-05-17 19:04:00,89.4,41.7,29.77,West,269,9.0,9.0,19,0.00,,,0.00,51,WeatherHawk,2013-05-18 02:04:00,
2013-05-17 19:08:00,85.3,48.5,29.77,WNW,294,8.0,8.0,28,0.00,,,0.00,38,WeatherHawk,2013-05-18 02:08:00,
2013-05-17 19:09:00,84.7,48.9,29.77,WNW,295,7.0,7.0,29,0.00,,,0.00,35,WeatherHawk,2013-05-18 02:09:00,
2013-05-17 19:11:00,83.7,48.0,29.77,WNW,295,9.0,14.0,29,0.00,,,0.00,30,WeatherHawk,2013-05-18 02:11:00,
2013-05-17 19:14:00,83.5,47.8,29.78,WNW,288,8.0,14.0,29,0.00,,,0.00,24,WeatherHawk,2013-05-18 02:14:00,
2013-05-17 19:16:00,83.1,48.4,29.78,WNW,302,9.0,14.0,30,0.00,,,0.00,22,WeatherHawk,2013-05-18 02:16:00,
2013-05-17 19:18:00,82.9,48.3,29.78,WNW,293,9.0,14.0,30,0.00,,,0.00,18,WeatherHawk,2013-05-18 02:18:00,
2013-05-17 19:19:00,82.6,48.9,19.93,WNW,291,7.0,14.0,31,0.00,,,0.00,17,WeatherHawk,2013-05-18 02:19:00,
2013-05-17 19:22:00,82.2,47.7,29.78,WNW,303,8.0,12.0,30,0.00,,,0.00,13,WeatherHawk,2013-05-18 02:22:00,
2013-05-17 19:24:00,82.0,47.5,29.78,WNW,302,9.0,12.0,30,0.00,,,0.00,12,WeatherHawk,2013-05-18 02:24:00,
2013-05-17 19:27:00,81.7,46.3,29.78,WNW,295,9.0,12.0,29,0.00,,,0.00,9,WeatherHawk,2013-05-18 02:27:00,
2013-05-17 19:29:00,81.7,46.3,29.78,WNW,290,9.0,12.0,29,0.00,,,0.00,8,WeatherHawk,2013-05-18 02:29:00,
2013-05-17 19:32:00,81.5,47.0,29.78,WNW,283,9.0,11.0,30,0.00,,,0.00,5,WeatherHawk,2013-05-18 02:32:00,
2013-05-17 19:34:00,81.3,46.9,29.78,WNW,296,9.0,-999.0,30,0.00,,,0.00,4,WeatherHawk,2013-05-18 02:34:00,
2013-05-17 19:35:00,81.1,46.7,29.78,WNW,299,9.0,11.0,30,0.00,,,0.00,1,WeatherHawk,2013-05-18 02:35:00,
2013-05-17 19:39:00,80.6,47.1,29.78,WNW,300,9.0,11.0,31,0.00,,,0.00,2,WeatherHawk,2013-05-18 02:39:00,
2013-05-17 19:41:00,79.9,47.4,29.78,WNW,296,9.0,11.0,32,0.00,,,0.00,2,WeatherHawk,2013-05-18 02:41:00,
2013-05-17 19:44:00,79.7,47.2,29.78,WNW,295,11.0,11.0,32,0.00,,,0.00,0,WeatherHawk,2013-05-18 02:44:00,
2013-05-17 19:46:00,79.2,47.6,29.78,WNW,295,11.0,11.0,33,0.00,,,0.00,0,WeatherHawk,2013-05-18 02:46:00,
2013-05-17 19:49:00,79.0,46.6,29.78,WNW,286,13.0,13.0,32,0.00,,,0.00,0,WeatherHawk,2013-05-18 02:49:00,
2013-05-17 19:51:00,79.2,46.7,29.78,WNW,302,9.0,16.0,32,0.00,,,0.00,0,WeatherHawk,2013-05-18 02:51:00,
2013-05-17 19:54:00,79.2,45.9,29.78,WNW,296,12.0,16.0,31,0.00,,,0.00,0,WeatherHawk,2013-05-18 02:54:00,
2013-05-17 19:56:00,79.2,45.9,29.78,NW,304,12.0,16.0,31,0.00,,,0.00,0,WeatherHawk,2013-05-18 02:56:00,
2013-05-17 19:59:00,78.8,45.6,29.78,NW,305,9.0,16.0,31,0.00,,,0.00,0,WeatherHawk,2013-05-18 02:59:00,
2013-05-17 20:00:00,78.8,45.6,29.78,NW,304,9.0,0.0,31,0.00,,,0.00,0,WeatherHawk,2013-05-18 03:00:00,
2013-05-17 20:01:00,78.6,45.4,29.78,WNW,298,10.0,0.0,31,0.00,,,0.00,0,WeatherHawk,2013-05-18 03:01:00,
2013-05-17 20:04:00,78.3,46.8,29.79,WNW,290,9.0,-999.0,33,0.00,,,0.00,0,WeatherHawk,2013-05-18 03:04:00,
2013-05-17 20:07:00,77.4,47.5,29.79,WNW,292,6.0,14.0,35,0.00,,,0.00,0,WeatherHawk,2013-05-18 03:07:00,
2013-05-17 20:09:00,77.4,47.5,29.79,WNW,292,6.0,14.0,35,0.00,,,0.00,0,WeatherHawk,2013-05-18 03:09:00,
2013-05-17 20:12:00,77.9,43.1,29.79,WNW,298,19.0,19.0,29,0.00,,,0.00,0,WeatherHawk,2013-05-18 03:12:00,
2013-05-17 20:14:00,78.3,43.4,29.79,WNW,299,11.0,11.0,29,0.00,,,0.00,0,WeatherHawk,2013-05-18 03:14:00,
2013-05-17 20:17:00,78.4,43.5,29.79,WNW,294,14.0,14.0,29,0.00,,,0.00,2,WeatherHawk,2013-05-18 03:17:00,
2013-05-17 20:19:00,78.3,43.4,29.79,WNW,291,13.0,13.0,29,0.00,,,0.00,0,WeatherHawk,2013-05-18 03:19:00,
2013-05-17 20:23:00,77.9,43.1,29.79,WNW,287,12.0,0.0,29,0.00,,,0.00,0,WeatherHawk,2013-05-18 03:23:00,
2013-05-17 20:24:00,77.9,42.1,29.79,WNW,285,12.0,0.0,28,0.00,,,0.00,1,WeatherHawk,2013-05-18 03:24:00,
2013-05-17 20:26:00,78.1,42.3,29.79,WNW,287,13.0,0.0,28,0.00,,,0.00,0,WeatherHawk,2013-05-18 03:26:00,
2013-05-17 20:29:00,77.9,42.1,29.79,WNW,296,14.0,0.0,28,0.00,,,0.00,0,WeatherHawk,2013-05-18 03:29:00,
2013-05-17 20:30:00,78.3,41.5,29.79,WNW,297,19.0,0.0,27,0.00,,,0.00,0,WeatherHawk,2013-05-18 03:30:00,
2013-05-17 20:34:00,78.4,42.6,29.79,WNW,298,24.0,-999.0,28,0.00,,,0.00,0,WeatherHawk,2013-05-18 03:34:00,
2013-05-17 20:35:00,78.4,42.6,29.79,WNW,292,21.0,21.0,28,0.00,,,0.00,0,WeatherHawk,2013-05-18 03:35:00,
2013-05-17 20:36:00,78.4,42.6,29.79,WNW,293,15.0,21.0,28,0.00,,,0.00,0,WeatherHawk,2013-05-18 03:36:00,
2013-05-17 20:39:00,78.1,44.1,29.80,WNW,295,14.0,21.0,30,0.00,,,0.00,0,WeatherHawk,2013-05-18 03:39:00,
2013-05-17 20:44:00,77.4,44.3,29.80,WNW,292,13.0,24.0,31,0.00,,,0.00,0,WeatherHawk,2013-05-18 03:44:00,
2013-05-17 20:46:00,77.2,43.3,29.80,NW,306,16.0,24.0,30,0.00,,,0.00,0,WeatherHawk,2013-05-18 03:46:00,
2013-05-17 20:47:00,77.2,44.2,29.80,WNW,300,12.0,24.0,31,0.00,,,0.00,0,WeatherHawk,2013-05-18 03:47:00,
2013-05-17 20:49:00,77.2,44.2,29.80,WNW,300,12.0,-999.0,31,0.00,,,0.00,0,WeatherHawk,2013-05-18 03:49:00,
2013-05-17 20:53:00,77.0,44.9,29.80,WNW,298,12.0,16.0,32,0.00,,,0.00,0,WeatherHawk,2013-05-18 03:53:00,
2013-05-17 20:54:00,77.0,44.9,29.80,WNW,297,14.0,16.0,32,0.00,,,0.00,0,WeatherHawk,2013-05-18 03:54:00,
2013-05-17 20:56:00,77.0,44.9,29.81,WNW,293,17.0,17.0,32,0.00,,,0.00,0,WeatherHawk,2013-05-18 03:56:00,
2013-05-17 20:58:00,76.8,44.7,29.81,WNW,293,13.0,16.0,32,0.00,,,0.00,0,WeatherHawk,2013-05-18 03:58:00,
2013-05-17 20:59:00,76.8,44.7,29.81,WNW,297,14.0,16.0,32,0.00,,,0.00,0,WeatherHawk,2013-05-18 03:59:00,
2013-05-17 21:04:00,76.5,44.4,29.81,WNW,294,16.0,0.0,32,0.00,,,0.00,0,WeatherHawk,2013-05-18 04:04:00,
2013-05-17 21:07:00,76.3,45.0,29.81,WNW,296,14.0,0.0,33,0.00,,,0.00,0,WeatherHawk,2013-05-18 04:07:00,
2013-05-17 21:08:00,76.1,45.7,29.81,WNW,292,13.0,0.0,34,0.00,,,0.00,0,WeatherHawk,2013-05-18 04:08:00,
2013-05-17 21:09:00,76.1,45.7,29.81,WNW,292,13.0,0.0,34,0.00,,,0.00,0,WeatherHawk,2013-05-18 04:09:00,
2013-05-17 21:10:00,76.1,44.9,29.81,WNW,294,16.0,0.0,33,0.00,,,0.00,0,WeatherHawk,2013-05-18 04:10:00,
2013-05-17 21:14:00,76.1,44.9,29.81,WNW,292,14.0,19.0,33,0.00,,,0.00,0,WeatherHawk,2013-05-18 04:14:00,
2013-05-17 21:17:00,75.6,46.0,29.81,WNW,292,11.0,19.0,35,0.00,,,0.00,0,WeatherHawk,2013-05-18 04:17:00,
2013-05-17 21:19:00,75.4,45.8,29.81,WNW,293,11.0,-999.0,35,0.00,,,0.00,0,WeatherHawk,2013-05-18 04:19:00,
2013-05-17 21:21:00,75.0,46.2,29.81,WNW,286,11.0,18.0,36,0.00,,,0.00,0,WeatherHawk,2013-05-18 04:21:00,
2013-05-17 21:24:00,74.8,46.1,29.81,WNW,287,11.0,18.0,36,0.00,,,0.00,0,WeatherHawk,2013-05-18 04:24:00,
2013-05-17 21:29:00,74.8,46.1,29.82,WNW,293,12.0,18.0,36,0.00,,,0.00,0,WeatherHawk,2013-05-18 04:29:00,
2013-05-17 21:30:00,74.7,45.9,29.82,WNW,302,11.0,0.0,36,0.00,,,0.00,0,WeatherHawk,2013-05-18 04:30:00,
2013-05-17 21:31:00,74.7,45.9,29.82,WNW,297,13.0,18.0,36,0.00,,,0.00,0,WeatherHawk,2013-05-18 04:31:00,
2013-05-17 21:36:00,74.5,46.5,29.82,WNW,298,9.0,18.0,37,0.00,,,0.00,0,WeatherHawk,2013-05-18 04:36:00,
2013-05-17 21:38:00,74.5,45.8,29.83,WNW,299,10.0,18.0,36,0.00,,,0.00,0,WeatherHawk,2013-05-18 04:38:00,
2013-05-17 21:39:00,74.5,45.8,29.82,WNW,300,12.0,-999.0,36,0.00,,,0.00,0,WeatherHawk,2013-05-18 04:39:00,
2013-05-17 21:40:00,74.5,46.5,29.83,WNW,289,10.0,0.0,37,0.00,,,0.00,0,WeatherHawk,2013-05-18 04:40:00,
2013-05-17 21:44:00,74.3,47.0,29.83,WNW,287,8.0,-999.0,38,0.00,,,0.00,0,WeatherHawk,2013-05-18 04:44:00,
2013-05-17 21:47:00,73.8,46.6,29.83,WNW,292,12.0,0.0,38,0.00,,,0.00,0,WeatherHawk,2013-05-18 04:47:00,
2013-05-17 21:49:00,73.8,46.6,29.83,WNW,290,10.0,0.0,38,0.00,,,0.00,0,WeatherHawk,2013-05-18 04:49:00,
2013-05-17 21:52:00,73.8,46.6,29.83,WNW,292,12.0,13.0,38,0.00,,,0.00,0,WeatherHawk,2013-05-18 04:52:00,
2013-05-17 21:53:00,73.8,45.8,29.83,WNW,296,14.0,14.0,37,0.00,,,0.00,0,WeatherHawk,2013-05-18 04:53:00,
2013-05-17 21:54:00,73.8,45.8,29.83,WNW,296,14.0,14.0,37,0.00,,,0.00,0,WeatherHawk,2013-05-18 04:54:00,
2013-05-17 21:57:00,73.9,46.0,29.83,WNW,290,11.0,13.0,37,0.00,,,0.00,0,WeatherHawk,2013-05-18 04:57:00,
2013-05-17 21:58:00,73.9,46.0,29.83,WNW,286,11.0,13.0,37,0.00,,,0.00,0,WeatherHawk,2013-05-18 04:58:00,
2013-05-17 21:59:00,73.8,46.6,29.83,WNW,292,10.0,13.0,38,0.00,,,0.00,0,WeatherHawk,2013-05-18 04:59:00,
2013-05-17 22:01:00,73.8,46.6,29.83,WNW,287,10.0,0.0,38,0.00,,,0.00,0,WeatherHawk,2013-05-18 05:01:00,
2013-05-17 22:02:00,73.6,46.4,29.83,WNW,291,9.0,17.0,38,0.00,,,0.00,0,WeatherHawk,2013-05-18 05:02:00,
2013-05-17 22:05:00,73.6,46.4,29.84,WNW,284,9.0,17.0,38,0.00,,,0.00,0,WeatherHawk,2013-05-18 05:05:00,
2013-05-17 22:06:00,73.4,46.2,29.84,WNW,288,9.0,17.0,38,0.00,,,0.00,0,WeatherHawk,2013-05-18 05:06:00,
2013-05-17 22:09:00,73.4,46.2,29.84,WNW,293,7.0,17.0,38,0.00,,,0.00,0,WeatherHawk,2013-05-18 05:09:00,
2013-05-17 22:12:00,73.0,46.6,29.84,WNW,286,7.0,0.0,39,0.00,,,0.00,0,WeatherHawk,2013-05-18 05:12:00,
2013-05-17 22:14:00,72.9,47.1,29.84,WNW,292,8.0,0.0,40,0.00,,,0.00,0,WeatherHawk,2013-05-18 05:14:00,
2013-05-17 22:15:00,72.7,46.3,29.84,West,281,11.0,0.0,39,0.00,,,0.00,0,WeatherHawk,2013-05-18 05:15:00,
2013-05-17 22:18:00,72.5,46.8,29.84,WNW,290,9.0,0.0,40,0.00,,,0.00,0,WeatherHawk,2013-05-18 05:18:00,
2013-05-17 22:19:00,72.5,46.8,29.84,WNW,290,9.0,0.0,40,0.00,,,0.00,0,WeatherHawk,2013-05-18 05:19:00,
2013-05-17 22:21:00,72.5,46.1,29.84,WNW,289,9.0,0.0,39,0.00,,,0.00,0,WeatherHawk,2013-05-18 05:21:00,
2013-05-17 22:23:00,72.3,46.6,29.84,WNW,292,7.0,11.0,40,0.00,,,0.00,0,WeatherHawk,2013-05-18 05:23:00,
2013-05-17 22:24:00,72.3,46.6,29.84,WNW,292,7.0,-999.0,40,0.00,,,0.00,0,WeatherHawk,2013-05-18 05:24:00,
2013-05-17 22:26:00,72.0,46.3,29.84,WNW,282,8.0,11.0,40,0.00,,,0.00,0,WeatherHawk,2013-05-18 05:26:00,
2013-05-17 22:27:00,71.8,46.8,29.84,WNW,284,8.0,11.0,41,0.00,,,0.00,0,WeatherHawk,2013-05-18 05:27:00,
2013-05-17 22:28:00,71.8,46.8,29.84,West,278,5.0,11.0,41,0.00,,,0.00,0,WeatherHawk,2013-05-18 05:28:00,
2013-05-17 22:29:00,71.6,46.6,29.84,WNW,283,7.0,11.0,41,0.00,,,0.00,0,WeatherHawk,2013-05-18 05:29:00,
2013-05-17 22:31:00,71.4,46.5,29.84,WNW,287,6.0,0.0,41,0.00,,,0.00,0,WeatherHawk,2013-05-18 05:31:00,
2013-05-17 22:33:00,71.2,47.0,29.84,WNW,290,7.0,0.0,42,0.00,,,0.00,0,WeatherHawk,2013-05-18 05:33:00,
2013-05-17 22:35:00,71.2,47.0,29.84,WNW,290,7.0,0.0,42,0.00,,,0.00,0,WeatherHawk,2013-05-18 05:35:00,
2013-05-17 22:37:00,71.1,46.8,29.84,WNW,288,7.0,0.0,42,0.00,,,0.00,0,WeatherHawk,2013-05-18 05:37:00,
2013-05-17 22:40:00,71.1,46.8,29.84,WNW,288,7.0,-999.0,42,0.00,,,0.00,0,WeatherHawk,2013-05-18 05:40:00,
2013-05-17 22:41:00,70.9,47.3,29.84,WNW,290,9.0,0.0,43,0.00,,,0.00,0,WeatherHawk,2013-05-18 05:41:00,
2013-05-17 22:45:00,70.7,47.1,29.84,WNW,294,9.0,-999.0,43,0.00,,,0.00,0,WeatherHawk,2013-05-18 05:45:00,
2013-05-17 22:46:00,70.7,46.5,29.84,WNW,297,8.0,9.0,42,0.00,,,0.00,0,WeatherHawk,2013-05-18 05:46:00,
2013-05-17 22:47:00,70.7,46.5,29.84,WNW,286,8.0,9.0,42,0.00,,,0.00,0,WeatherHawk,2013-05-18 05:47:00,
2013-05-17 22:50:00,70.7,46.5,29.84,WNW,293,9.0,9.0,42,0.00,,,0.00,0,WeatherHawk,2013-05-18 05:50:00,
2013-05-17 22:51:00,70.7,47.1,29.84,WNW,300,9.0,0.0,43,0.00,,,0.00,0,WeatherHawk,2013-05-18 05:51:00,
2013-05-17 22:53:00,70.7,46.5,29.84,WNW,295,11.0,11.0,42,0.00,,,0.00,0,WeatherHawk,2013-05-18 05:53:00,
2013-05-17 22:55:00,70.9,46.6,29.84,WNW,293,10.0,10.0,42,0.00,,,0.00,0,WeatherHawk,2013-05-18 05:55:00,
2013-05-17 22:57:00,71.4,45.8,29.83,WNW,303,10.0,10.0,40,0.00,,,0.00,0,WeatherHawk,2013-05-18 05:57:00,
2013-05-17 22:58:00,71.6,46.0,29.84,WNW,293,9.0,10.0,40,0.00,,,0.00,0,WeatherHawk,2013-05-18 05:58:00,
2013-05-17 23:00:00,71.6,46.0,29.83,WNW,289,9.0,10.0,40,0.00,,,0.00,0,WeatherHawk,2013-05-18 06:00:00,
2013-05-17 23:01:00,71.6,46.0,29.84,WNW,285,7.0,0.0,40,0.00,,,0.00,0,WeatherHawk,2013-05-18 06:01:00,
2013-05-17 23:05:00,71.6,46.0,29.84,WNW,285,7.0,0.0,40,0.00,,,0.00,0,WeatherHawk,2013-05-18 06:05:00,
2013-05-17 23:08:00,70.9,46.6,29.84,WNW,282,8.0,13.0,42,0.00,,,0.00,0,WeatherHawk,2013-05-18 06:08:00,
2013-05-17 23:10:00,70.9,46.6,29.84,WNW,283,8.0,-999.0,42,0.00,,,0.00,0,WeatherHawk,2013-05-18 06:10:00,
2013-05-17 23:11:00,70.7,46.5,29.84,WNW,283,8.0,10.0,42,0.00,,,0.00,0,WeatherHawk,2013-05-18 06:11:00,
2013-05-17 23:14:00,70.5,46.9,29.84,West,276,6.0,10.0,43,0.00,,,0.00,0,WeatherHawk,2013-05-18 06:14:00,
2013-05-17 23:15:00,70.5,46.9,29.84,West,276,6.0,10.0,43,0.00,,,0.00,0,WeatherHawk,2013-05-18 06:15:00,
2013-05-17 23:17:00,70.3,46.8,29.84,West,276,5.0,10.0,43,0.00,,,0.00,0,WeatherHawk,2013-05-18 06:17:00,
2013-05-17 23:20:00,70.5,46.9,29.84,West,276,6.0,10.0,43,0.00,,,0.00,0,WeatherHawk,2013-05-18 06:20:00,
2013-05-17 23:25:00,70.5,46.9,29.84,West,276,5.0,0.0,43,0.00,,,0.00,1,WeatherHawk,2013-05-18 06:25:00,
2013-05-17 23:28:00,70.3,46.8,29.84,West,271,4.0,9.0,43,0.00,,,0.00,0,WeatherHawk,2013-05-18 06:28:00,
2013-05-17 23:29:00,70.3,46.8,29.84,West,281,5.0,9.0,43,0.00,,,0.00,0,WeatherHawk,2013-05-18 06:29:00,
2013-05-17 23:31:00,70.2,46.6,29.84,West,268,4.0,0.0,43,0.00,,,0.00,1,WeatherHawk,2013-05-18 06:31:00,
2013-05-17 23:32:00,70.2,47.2,29.84,West,278,5.0,7.0,44,0.00,,,0.00,0,WeatherHawk,2013-05-18 06:32:00,
2013-05-17 23:35:00,70.0,47.1,29.84,WNW,287,5.0,7.0,44,0.00,,,0.00,1,WeatherHawk,2013-05-18 06:35:00,
2013-05-17 23:36:00,69.8,47.5,29.84,West,274,4.0,7.0,45,0.00,,,0.00,0,WeatherHawk,2013-05-18 06:36:00,
2013-05-17 23:39:00,69.6,47.3,29.84,West,272,4.0,7.0,45,0.00,,,0.00,1,WeatherHawk,2013-05-18 06:39:00,
2013-05-17 23:42:00,69.4,47.2,29.84,West,265,4.0,6.0,45,0.00,,,0.00,0,WeatherHawk,2013-05-18 06:42:00,
2013-05-17 23:45:00,69.3,47.6,29.84,West,272,3.0,6.0,46,0.00,,,0.00,0,WeatherHawk,2013-05-18 06:45:00,
2013-05-17 23:50:00,68.9,48.4,29.84,WSW,246,2.0,6.0,48,0.00,,,0.00,0,WeatherHawk,2013-05-18 06:50:00,
2013-05-17 23:55:00,68.5,47.5,29.84,WNW,298,3.0,8.0,47,0.00,,,0.00,0,WeatherHawk,2013-05-18 06:55:00,
2013-05-17 23:56:00,68.7,47.1,29.84,NW,316,1.0,8.0,46,0.00,,,0.00,0,WeatherHawk,2013-05-18 06:56:00,
2013-05-17 23:59:00,68.7,47.1,29.84,WNW,291,2.0,8.0,46,0.00,,,0.00,0,WeatherHawk,2013-05-18 06:59:00,